Index of /watch_images/10868

[ICO]NameLast modifiedSizeDescription

[PARENTDIR]Parent Directory  -  
[IMG]108676131-planet-createft160_medium.jpg2017-01-12 05:08 164K 
[IMG]108676139-3d-render-of-red-credit-cartft160_medium.jpg2017-01-12 05:07 141K 
[IMG]108676148-sommerabend-am-schoenen-bodenseeft160_medium.jpg2017-01-12 05:05 137K 
[IMG]108676161-allegoryft160_medium.jpg2017-01-12 05:02 197K 
[IMG]108676170-underwater-blue-ocean-sunlight-backgroundft160_medium.jpg2017-01-12 05:02 110K 
[IMG]108676173-exercise-word-scale-physical-fitness-lose-weight-active-lifestyle-regimenft160_medium.jpg2017-01-12 05:03 161K 
[IMG]108676187-world-wide-web-flat-panel-connected-elements-of-this-image-furnished-by-nasaft160_medium.jpg2017-01-12 05:01 136K 
[IMG]108676198-cup-of-coffeeft160_medium.jpg2017-01-12 05:03 178K 
[IMG]108676205-cup-of-coffeeft160_medium.jpg2017-01-12 05:04 185K 
[IMG]108676259-relaxing-facilities-on-the-golden-beach-of-eilat-famous-resort-city-in-israelft160_medium.jpg2017-01-12 05:02 165K 
[IMG]108676262-background-slice-of-fresh-orange-background-textureft160_medium.jpg2017-01-12 04:59 180K 
[IMG]108676265-cup-of-coffeeft160_medium.jpg2017-01-12 05:08 179K 
[IMG]108676280-beautiful-dam-trau-beach-with-island-on-background-in-con-dao-southern-vietnam-ft160_medium.jpg2017-01-12 05:06 184K 
[IMG]108676290-charlotte-north-carolinaft160_medium.jpg2017-01-12 05:09 199K 
[IMG]108676309-surfer-walking-on-the-beach-with-a-surfboardft160_medium.jpg2017-01-12 05:08 142K 
[IMG]108676310-guitar-fireft160_medium.jpg2017-01-12 05:08 179K 
[IMG]108676317-landscapeft160_medium.jpg2017-01-12 05:09 134K 
[IMG]108676320-american-fist-punchft160_medium.jpg2017-01-12 05:03 125K 
[IMG]108676322-durham-north-carolinaft160_medium.jpg2017-01-12 05:01 190K 
[IMG]108676331-colorful-abstract-paintingft160_medium.jpg2017-01-12 05:03 220K 
[IMG]108676338-resolution-word-scale-new-year-promise-commitment-lose-weightft160_medium.jpg2017-01-12 05:09 162K 
[IMG]108676339-orange-fruit-with-leaves-isolated-on-white-backgroundft160_medium.jpg2017-01-12 05:03 138K 
[IMG]108676344-surfer-walking-on-the-beach-with-a-surfboardft160_medium.jpg2017-01-12 05:04 144K 
[IMG]108676352-raleigh-north-carolinaft160_medium.jpg2017-01-12 05:05 191K 
[IMG]108676377-chimpanzee-with-open-mouth-breaks-through-the-paper-ft160_medium.jpg2017-01-12 05:03 153K 
[IMG]108676408-breakthrough-paper-hole-in-the-rough-pencil-drawing-ft160_medium.jpg2017-01-12 05:07 153K 
[IMG]108676422-sweitzer-lake-state-park-coloradoft160_medium.jpg2017-01-12 05:03 175K 
[IMG]108676427-beautiful-ong-dung-beach-with-island-on-background-in-con-dao-southern-vietnam-ft160_medium.jpg2017-01-12 05:07 163K 
[IMG]108676430-for-your-health-words-scale-improve-lifestyle-eating-lose-weightft160_medium.jpg2017-01-12 05:09 164K 
[IMG]108676441-breakthrough-paper-hole-in-the-rough-pencil-drawing-ft160_medium.jpg2017-01-12 05:04 160K 
[IMG]108676456-female-business-colleagues-discussing-on-laptopft160_medium.jpg2017-01-12 05:01 161K 
[IMG]108676464-protect-your-mobile-phoneft160_medium.jpg2017-01-12 05:08 143K 
[IMG]108676467-point-loma-lighthouseft160_medium.jpg2017-01-12 05:05 164K 
[IMG]108676470-brochure-design-template-business-layout-vector-illustration-ft160_medium.jpg2017-01-12 05:04 167K 
[IMG]108676478-awar-icon-vector-isolated-on-white-background-flat-design-style-ft160_medium.jpg2017-01-12 05:08 131K 
[IMG]108676490-realistic-bottle-mock-up-set-isolated-pack-on-white-background-cosmetic-brand-template-vector-packaging-oil-lotion-shampoo-ft160_medium.jpg2017-01-12 05:04 116K 
[IMG]108676498-gatitos-dulces-mascotas-comer-ft160_medium.jpg2017-01-12 05:04 182K 
[IMG]108676499ft160_medium.jpg2017-01-12 05:06 179K 
[IMG]108676503-gift-tag-with-bow-ft160_medium.jpg2017-01-12 04:59 165K 
[IMG]108676509-sommer-urlaub-bodenseeft160_medium.jpg2017-01-12 05:07 154K 
[IMG]108676578-bodybuilding-power-lifting-concept-in-flat-style-on-white-background-ft160_medium.jpg2017-01-12 05:01 145K 
[IMG]108676579-portrait-of-business-colleagues-pointing-sidewaysft160_medium.jpg2017-01-12 04:59 168K 
[IMG]108676585-watch-your-weight-scale-lose-pounds-diet-healthy-lifestyle-3d-wordsft160_medium.jpg2017-01-12 05:05 163K 
[IMG]108676588-sweitzer-lake-state-park-coloradoft160_medium.jpg2017-01-12 05:00 156K 
[IMG]108676592-beautiful-floral-wedding-decorations-wonderful-flowers-are-on-the-table-close-upft160_medium.jpg2017-01-12 05:01 177K 
[IMG]108676610-nice-river-water-flowing-through-rocks-at-dawnft160_medium.jpg2017-01-12 05:04 188K 
[IMG]108676632ft160_medium.jpg2017-01-12 04:59 201K 
[IMG]108676640ft160_medium.jpg2017-01-12 05:09 173K 
[IMG]108676657-bannerfish-moorish-idol-fish-angelfish-ft160_medium.jpg2017-01-12 05:08 139K 
[IMG]108676692-female-using-laptopft160_medium.jpg2017-01-12 05:07 165K 
[IMG]108676694-green-vector-nature-watercolor-gradient-abstract-banner-green-watercolor-spot-vector-illustration-isolated-on-white-background-ft160_medium.jpg2017-01-12 05:04 162K 
[IMG]108676697-green-ecology-vector-banner-green-rubber-stamp-with-text-natural-product-icon-isolated-on-white-background-ft160_medium.jpg2017-01-12 05:05 174K 
[IMG]108676699ft160_medium.jpg2017-01-12 04:59 166K 
[IMG]108676701-beautiful-woman-talking-on-the-phoneft160_medium.jpg2017-01-12 05:05 151K 
[IMG]108676705-waters-reflection-and-planetsft160_medium.jpg2017-01-12 05:02 138K 
[IMG]108676721-love-bleedft160_medium.jpg2017-01-12 05:05 209K 
[IMG]108676732-flooding-men-with-ideasft160_medium.jpg2017-01-12 05:00 137K 
[IMG]108676734-aerial-of-wind-farm-on-the-mountain-top-creates-clean-energy-and-a-fantastic-view-in-northern-china-grasslands-and-forests-in-the-area-are-popular-tourist-destinations-in-the-summertime-ft160_medium.jpg2017-01-12 05:04 120K 
[IMG]108676750-galactic-spaceft160_medium.jpg2017-01-12 05:06 147K 
[IMG]108676755-green-foodft160_medium.jpg2017-01-12 05:09 143K 
[IMG]108676779-restaurant-logoft160_medium.jpg2017-01-12 05:07 125K 
[IMG]108676878-green-ecology-vector-banner-with-text-100-cotton-natural-cotton-green-rubber-stamp-with-text-icon-isolated-on-white-background-ft160_medium.jpg2017-01-12 05:09 174K 
[IMG]108676938ft160_medium.jpg2017-01-12 05:02 156K 
[IMG]108676954-wooden-old-clothespin-and-empty-cardft160_medium.jpg2017-01-12 05:08 107K 
[IMG]108676956-camping-gas-stove-and-old-sooty-hiking-panft160_medium.jpg2017-01-12 05:04 152K 
[IMG]108676960-shashlik-of-lamb-cooking-on-bonfireft160_medium.jpg2017-01-12 05:01 207K 
[IMG]108676964-cinnamon-sticks-in-form-of-sunft160_medium.jpg2017-01-12 05:07 131K 
[IMG]108676967-cinnamon-sticksft160_medium.jpg2017-01-12 05:01 152K 
[IMG]108676977-scuba-divers-entering-underwater-tunnel-at-gato-island-philippines-ft160_medium.jpg2017-01-12 05:08 132K 
[IMG]108676978-mae-klong-damft160_medium.jpg2017-01-12 05:04 210K 
[IMG]108676981-happy-holiday-best-time-image-on-wooden-background-travel-conceptft160_medium.jpg2017-01-12 05:07 153K 
[IMG]108676984-aerial-of-ski-resort-in-summer-alpine-meadow-ft160_medium.jpg2017-01-12 05:04 119K 
[IMG]108676999-rhinoceros-also-known-as-rhino-is-a-group-of-five-extant-species-of-odd-toed-ungulates-in-the-family-rhinocerotidae-two-of-these-species-are-native-to-africa-and-three-to-southern-asia-ft160_medium.jpg2017-01-12 05:01 179K 
[IMG]108677012-slice-of-ripe-pumpkin-ft160_medium.jpg2017-01-12 05:06 127K 
[IMG]108677018-underwater-fish-school-ocean-seaft160_medium.jpg2017-01-12 05:04 173K 
[IMG]108677025-h-mong-ethnic-minority-people-at-market-at-bac-ha-vietnam-there-are-about-800-000-thousand-h-mongs-in-vietnam-ft160_medium.jpg2017-01-12 04:59 197K 
[IMG]108677032-wassertropfenfotografieft160_medium.jpg2017-01-12 05:07 222K 
[IMG]108677039-sweitzer-lake-state-park-coloradoft160_medium.jpg2017-01-12 04:59 194K 
[IMG]108677047-business-people-group-on-meeting-at-modern-startup-officeft160_medium.jpg2017-01-12 05:05 153K 
[IMG]108677057-slice-of-ripe-pumpkin-ft160_medium.jpg2017-01-12 05:00 145K 
[IMG]108677063-texture-of-wood-background-closeupft160_medium.jpg2017-01-12 05:08 137K 
[IMG]108677118ft160_medium.jpg2017-01-12 05:09 154K 
[IMG]108677124ft160_medium.jpg2017-01-12 05:03 147K 
[IMG]108677128ft160_medium.jpg2017-01-12 05:01 149K 
[IMG]108677132ft160_medium.jpg2017-01-12 05:04 150K 
[IMG]108677136ft160_medium.jpg2017-01-12 05:08 144K 
[IMG]108677153-slice-of-ripe-pumpkin-ft160_medium.jpg2017-01-12 05:04 140K 
[IMG]108677176-slice-of-ripe-pumpkin-ft160_medium.jpg2017-01-12 05:03 140K 
[IMG]108677178-fall-landscape-ft160_medium.jpg2017-01-12 05:08 156K 
[IMG]108677179-fish-school-ocean-seaft160_medium.jpg2017-01-12 05:01 205K 
[IMG]108677194-slice-of-ripe-pumpkin-ft160_medium.jpg2017-01-12 05:06 119K 
[IMG]108677199-fall-landscape-ft160_medium.jpg2017-01-12 05:09 207K 
[IMG]108677213-lotus-flower-nelumbo-nucifera-known-by-a-number-of-names-including-indian-lotus-sacred-lotus-bean-of-india-or-simply-lotus-is-a-plant-in-the-monotypic-family-nelumbonaceae-ft160_medium.jpg2017-01-12 05:06 146K 
[IMG]108677216-fall-landscape-ft160_medium.jpg2017-01-12 05:07 180K 
[IMG]108677240-fall-landscape-ft160_medium.jpg2017-01-12 05:04 181K 
[IMG]108677248-sweitzer-lake-state-park-coloradoft160_medium.jpg2017-01-12 05:00 165K 
[IMG]108677249-black-friday-retro-light-frameft160_medium.jpg2017-01-12 05:05 137K 
[IMG]108677262-cup-of-coffeeft160_medium.jpg2017-01-12 05:03 162K 
[IMG]108677272-rudbeckia-is-a-plant-genus-in-the-sunflower-family-the-species-are-commonly-called-coneflowers-and-black-eyed-susans-all-are-native-to-north-america-and-many-species-are-cultivated-in-gardens-ft160_medium.jpg2017-01-12 05:09 172K 
[IMG]108677276-cup-of-coffeeft160_medium.jpg2017-01-12 05:00 166K 
[IMG]108677291-lotus-flower-nelumbo-nucifera-known-by-a-number-of-names-including-indian-lotus-sacred-lotus-bean-of-india-or-simply-lotus-is-a-plant-in-the-monotypic-family-nelumbonaceae-ft160_medium.jpg2017-01-12 04:59 207K 
[IMG]108677309-cup-of-coffeeft160_medium.jpg2017-01-12 05:09 154K 
[IMG]108677316-dahlia-is-a-genus-of-bushy-tuberous-herbaceous-perennial-plants-native-mainly-in-mexico-related-species-include-the-sunflower-daisy-chrysanthemum-and-zinnia-ft160_medium.jpg2017-01-12 05:06 206K 
[IMG]108677324-burning-candles-before-the-altar-in-the-churchft160_medium.jpg2017-01-12 05:00 159K 
[IMG]108677327-aluminum-grinding-textureft160_medium.jpg2017-01-12 05:03 163K 
[IMG]108677355-wassertropfenfotografieft160_medium.jpg2017-01-12 05:00 251K 
[IMG]108677357-the-sunflower-is-an-annual-plant-native-to-the-americas-it-possesses-a-large-inflorescence-and-its-name-is-derived-from-the-flower-s-shape-and-image-which-is-often-used-to-depict-the-sun-ft160_medium.jpg2017-01-12 05:09 200K 
[IMG]108677378-water-lily-nymphaeaceae-is-a-family-of-flowering-plants-members-of-this-family-are-commonly-called-water-lilies-and-live-as-rhizomatous-aquatic-herbs-in-temperate-and-tropical-climates-ft160_medium.jpg2017-01-12 04:59 156K 
[IMG]108677382-flat-illustration-of-back-to-school-design-ft160_medium.jpg2017-01-12 05:04 155K 
[IMG]108677386-old-wooden-frames-on-brick-wall-ft160_medium.jpg2017-01-12 05:06 190K 
[IMG]108677389-the-sunflower-is-an-annual-plant-native-to-the-americas-it-possesses-a-large-inflorescence-and-its-name-is-derived-from-the-flower-s-shape-and-image-which-is-often-used-to-depict-the-sun-ft160_medium.jpg2017-01-12 04:59 203K 
[IMG]108677390-flat-illustration-of-back-to-school-design-ft160_medium.jpg2017-01-12 05:00 151K 
[IMG]108677396-flat-illustration-of-back-to-school-design-ft160_medium.jpg2017-01-12 05:03 166K 
[IMG]108677400-flat-illustration-of-back-to-school-design-ft160_medium.jpg2017-01-12 05:09 169K 
[IMG]108677406-flat-illustration-of-back-to-school-design-ft160_medium.jpg2017-01-12 05:08 159K 
[IMG]108677413-flat-illustration-of-back-to-school-design-ft160_medium.jpg2017-01-12 05:09 157K 
[IMG]108677415-flat-illustration-of-back-to-school-design-ft160_medium.jpg2017-01-12 05:07 159K 
[IMG]108677421-savannah-cat-a-large-spotted-and-striped-gray-colored-serval-savannah-kitten-with-golden-orange-eyes-resting-on-a-cat-tree-inside-this-color-is-also-known-as-a-blue-savannah-seven-months-old-ft160_medium.jpg2017-01-12 05:07 153K 
[IMG]108677434-flat-illustration-of-back-to-school-design-ft160_medium.jpg2017-01-12 05:03 158K 
[IMG]108677438-aerial-of-wind-farm-on-the-mountain-top-creates-clean-energy-and-a-fantastic-view-in-northern-china-grasslands-and-forests-in-the-area-are-popular-tourist-destinations-in-the-summertime-ft160_medium.jpg2017-01-12 05:03 133K 
[IMG]108677439-flat-illustration-of-back-to-school-design-ft160_medium.jpg2017-01-12 05:00 159K 
[IMG]108677440-wassertropfenfotografieft160_medium.jpg2017-01-12 05:06 244K 
[IMG]108677441-savannah-kitten-beautiful-face-of-a-spotted-and-striped-gold-colored-serval-savannah-kitten-with-blue-eyes-relaxing-on-a-cat-tree-shelf-ft160_medium.jpg2017-01-12 05:00 172K 
[IMG]108677442-flat-illustration-of-back-to-school-design-ft160_medium.jpg2017-01-12 05:03 161K 
[IMG]108677450-light-blue-clock-in-a-classical-style-ft160_medium.jpg2017-01-12 05:06 212K 
[IMG]108677457-black-friday-price-sticker-on-black-backgroundft160_medium.jpg2017-01-12 05:06 131K 
[IMG]108677459-flat-illustration-of-back-to-school-design-ft160_medium.jpg2017-01-12 05:09 155K 
[IMG]108677466-black-friday-price-sticker-on-black-backgroundft160_medium.jpg2017-01-12 05:04 120K 
[IMG]108677467-flat-illustration-of-back-to-school-design-ft160_medium.jpg2017-01-12 04:59 161K 
[IMG]108677468-water-buffalo-ft160_medium.jpg2017-01-12 05:03 155K 
[IMG]108677473-flat-illustration-of-back-to-school-design-ft160_medium.jpg2017-01-12 05:08 157K 
[IMG]108677481-flat-illustration-of-back-to-school-design-ft160_medium.jpg2017-01-12 05:01 169K 
[IMG]108677485-domain-of-usaft160_medium.jpg2017-01-12 05:01 122K 
[IMG]108677500-zebras-are-several-species-of-african-equids-horse-family-united-by-their-distinctive-black-and-white-stripes-etosha-national-park-namibia-africa-ft160_medium.jpg2017-01-12 04:59 201K 
[IMG]108677504ft160_medium.jpg2017-01-12 05:01 155K 
[IMG]108677509-business-man-showing-career-news-in-smartphoneft160_medium.jpg2017-01-12 05:07 168K 
[IMG]108677513-garbage-trash-bin-with-recycle-symbolft160_medium.jpg2017-01-12 05:06 123K 
[IMG]108677515-business-man-showing-report-from-smartphonesft160_medium.jpg2017-01-12 05:05 161K 
[IMG]108677520-vintage-wooden-backgroundft160_medium.jpg2017-01-12 05:09 132K 
[IMG]108677546-business-man-video-calling-from-smartphoneft160_medium.jpg2017-01-12 05:05 151K 
[IMG]108677547--lion-is-one-of-the-four-big-cats-in-the-genus-panthera-and-a-member-of-the-family-felidae-with-some-males-exceeding-250-kg-550-lb-in-weight-it-is-the-second-largest-living-cat-after-the-tiger-ft160_medium.jpg2017-01-12 05:04 185K 
[IMG]108677564-flat-illustration-of-back-to-school-design-ft160_medium.jpg2017-01-12 05:08 131K 
[IMG]108677570-business-man-run-away-from-his-boss-phone-callft160_medium.jpg2017-01-12 05:09 147K 
[IMG]108677576-colorado-sweitzer-lake-state-parkft160_medium.jpg2017-01-12 05:06 165K 
[IMG]108677579-flat-illustration-of-back-to-school-design-ft160_medium.jpg2017-01-12 05:02 136K 
[IMG]108677584ft160_medium.jpg2017-01-12 05:08 198K 
[IMG]108677595-przewalski-s-horse-or-dzungarian-horse-is-a-rare-and-endangered-subspecies-of-wild-horse-equus-ferus-native-to-the-steppes-of-central-asia-specifically-china-and-mongolia-ft160_medium.jpg2017-01-12 05:03 159K 
[IMG]108677645-aerial-of-wind-farm-on-the-mountain-top-creates-clean-energy-and-a-fantastic-view-in-northern-china-grasslands-and-forests-in-the-area-are-popular-tourist-destinations-in-the-summertime-ft160_medium.jpg2017-01-12 05:05 119K 
[IMG]108677658-rhinoceros-also-known-as-rhino-is-a-group-of-five-extant-species-of-odd-toed-ungulates-in-the-family-rhinocerotidae-two-of-these-species-are-native-to-africa-and-three-to-southern-asia-ft160_medium.jpg2017-01-12 05:08 170K 
[IMG]108677661-black-friday-red-label-with-ribbons-on-black-backgroundft160_medium.jpg2017-01-12 04:59 135K 
[IMG]108677669-lion-is-one-of-the-four-big-cats-in-the-genus-panthera-and-a-member-of-the-family-felidae-with-some-males-exceeding-250-kg-550-lb-in-weight-it-is-the-second-largest-living-cat-after-the-tiger-ft160_medium.jpg2017-01-12 05:09 170K 
[IMG]108677698-aerial-of-wind-farm-on-the-mountain-top-creates-clean-energy-and-a-fantastic-view-in-northern-china-grasslands-and-forests-in-the-area-are-popular-tourist-destinations-in-the-summertime-ft160_medium.jpg2017-01-12 05:05 136K 
[IMG]108677719-garbage-trash-bin-with-recycle-symbolft160_medium.jpg2017-01-12 05:06 128K 
[IMG]108677738ft160_medium.jpg2017-01-12 05:01 104K 
[IMG]108677752ft160_medium.jpg2017-01-12 05:07 257K 
[IMG]108677757-rhinoceros-also-known-as-rhino-is-a-group-of-five-extant-species-of-odd-toed-ungulates-in-the-family-rhinocerotidae-two-of-these-species-are-native-to-africa-and-three-to-southern-asia-ft160_medium.jpg2017-01-12 05:04 168K 
[IMG]108677772-wassertropfenfotografieft160_medium.jpg2017-01-12 05:02 215K 
[IMG]108677791-warthog-or-common-warthog-ft160_medium.jpg2017-01-12 05:03 189K 
[IMG]108677805-aerial-of-wind-farm-on-the-mountain-top-creates-clean-energy-and-a-fantastic-view-in-northern-china-grasslands-and-forests-in-the-area-are-popular-tourist-destinations-in-the-summertime-ft160_medium.jpg2017-01-12 05:07 146K 
[IMG]108677862-candles-burning-in-the-darkness-of-the-church-flame-on-black-backgroundft160_medium.jpg2017-01-12 05:04 167K 
[IMG]108677873-fresh-fish-hanging-on-hooks-at-a-fish-market-in-istanbul-turkeyft160_medium.jpg2017-01-12 04:59 206K 
[IMG]108677874-the-emu-is-the-largest-bird-native-to-australia-and-the-only-extant-member-of-the-genus-dromaius-it-is-the-second-largest-extant-bird-in-the-world-by-height-after-its-ratite-relative-the-ostrich-ft160_medium.jpg2017-01-12 05:03 191K 
[IMG]108677879-cyclists-run-through-the-trail-of-ponale-in-riva-del-garda-italft160_medium.jpg2017-01-12 05:01 214K 
[IMG]108677882-the-amazing-new-synagogue-in-berlin-germanyft160_medium.jpg2017-01-12 05:02 189K 
[IMG]108677884-lilies-are-a-group-of-flowering-plants-which-are-important-in-culture-and-literature-in-much-of-the-world-most-species-are-native-to-the-temperate-northern-hemisphere-ft160_medium.jpg2017-01-12 05:01 220K 
[IMG]108677886ft160_medium.jpg2017-01-12 05:05 158K 
[IMG]108677894-the-emu-is-the-largest-bird-native-to-australia-and-the-only-extant-member-of-the-genus-dromaius-it-is-the-second-largest-extant-bird-in-the-world-by-height-after-its-ratite-relative-the-ostrich-ft160_medium.jpg2017-01-12 05:01 157K 
[IMG]108677895-green-artichokes-for-sale-at-a-marketft160_medium.jpg2017-01-12 05:01 233K 
[IMG]108677900-garbage-trash-bin-with-recycle-symbolft160_medium.jpg2017-01-12 05:07 129K 
[IMG]108677904-lilies-are-a-group-of-flowering-plants-which-are-important-in-culture-and-literature-in-much-of-the-world-most-species-are-native-to-the-temperate-northern-hemisphere-ft160_medium.jpg2017-01-12 05:07 167K 
[IMG]108677916-lilies-are-a-group-of-flowering-plants-which-are-important-in-culture-and-literature-in-much-of-the-world-most-species-are-native-to-the-temperate-northern-hemisphere-ft160_medium.jpg2017-01-12 05:09 170K 
[IMG]108677926-the-grizzly-bear-also-known-as-the-silvertip-bear-the-grizzly-or-the-north-american-brown-bear-is-a-subspecies-of-brown-bear-that-generally-lives-in-the-uplands-of-western-north-america-ft160_medium.jpg2017-01-12 05:07 183K 
[IMG]108677932-roses-ft160_medium.jpg2017-01-12 05:08 173K 
[IMG]108677938-warthog-or-common-warthog-ft160_medium.jpg2017-01-12 05:03 189K 
[IMG]108677940-asian-boy-sleeping-on-sickbed-with-infusion-pump-intravenous-iv-dripft160_medium.jpg2017-01-12 05:02 129K 
[IMG]108677942-water-lily-nymphaeaceae-is-a-family-of-flowering-plants-members-of-this-family-are-commonly-called-water-lilies-and-live-as-rhizomatous-aquatic-herbs-in-temperate-and-tropical-climates-ft160_medium.jpg2017-01-12 05:03 154K 
[IMG]108677945-detail-of-drying-hair-with-hair-dryer-and-brush-ft160_medium.jpg2017-01-12 04:59 142K 
[IMG]108677953-nighttime-sky-with-clouds-bright-full-moon-would-make-a-great-backgroundft160_medium.jpg2017-01-12 05:03 121K 
[IMG]108677954-medicine-pills-and-capsules-icon-set-single-vectors-collection-ft160_medium.jpg2017-01-12 05:07 164K 
[IMG]108677959-lifting-a-railway-wagon-for-maintenance-in-a-workshop-major-repaft160_medium.jpg2017-01-12 05:08 218K 
[IMG]108677969ft160_medium.jpg2017-01-12 05:03 146K 
[IMG]108677977-wassertropfenfotografieft160_medium.jpg2017-01-12 05:06 228K 
[IMG]108678000ft160_medium.jpg2017-01-12 05:05 132K 
[IMG]108678002-lilies-are-a-group-of-flowering-plants-which-are-important-in-culture-and-literature-in-much-of-the-world-most-species-are-native-to-the-temperate-northern-hemisphere-ft160_medium.jpg2017-01-12 05:08 200K 
[IMG]108678003ft160_medium.jpg2017-01-12 05:03 127K 
[IMG]108678009-green-grass-backgroundft160_medium.jpg2017-01-12 05:00 261K 
[IMG]108678013ft160_medium.jpg2017-01-12 05:09 139K 
[IMG]108678018-garbage-trash-bin-with-recycle-symbolft160_medium.jpg2017-01-12 05:03 128K 
[IMG]108678019-lilies-are-a-group-of-flowering-plants-which-are-important-in-culture-and-literature-in-much-of-the-world-most-species-are-native-to-the-temperate-northern-hemisphere-ft160_medium.jpg2017-01-12 05:09 169K 
[IMG]108678025-the-giraffe-giraffa-camelopardalis-is-an-african-even-toed-ungulate-mammal-the-tallest-of-all-extant-land-living-animal-species-and-the-largest-ruminant-ft160_medium.jpg2017-01-12 05:05 192K 
[IMG]108678031-bell-tower-of-the-medieval-sanctuary-of-st-mery-of-bassanella-ft160_medium.jpg2017-01-12 05:02 155K 
[IMG]108678041-the-icelandic-horse-is-a-breed-of-horse-developed-in-iceland-although-the-horses-are-small-at-times-pony-sized-most-registries-for-the-icelandic-refer-to-it-as-a-horse-ft160_medium.jpg2017-01-12 05:04 182K 
[IMG]108678044-angle-of-aluminum-tubeft160_medium.jpg2017-01-12 05:03 146K 
[IMG]108678053-wassertropfenfotografieft160_medium.jpg2017-01-12 05:02 242K 
[IMG]108678071-the-icelandic-horse-is-a-breed-of-horse-developed-in-iceland-although-the-horses-are-small-at-times-pony-sized-most-registries-for-the-icelandic-refer-to-it-as-a-horse-ft160_medium.jpg2017-01-12 05:07 160K 
[IMG]108678080-women-have-to-relax-and-listen-to-music-at-the-beachft160_medium.jpg2017-01-12 05:05 122K 
[IMG]108678083-angle-of-aluminum-tubeft160_medium.jpg2017-01-12 05:09 141K 
[IMG]108678086-the-perito-moreno-glacier-is-a-glacier-located-in-the-los-glaciares-national-park-in-the-santa-cruz-province-argentina-it-is-one-of-the-most-important-tourist-attractions-in-the-argentine-patagonia-ft160_medium.jpg2017-01-12 05:02 191K 
[IMG]108678087-organ-and-choir-loft-above-the-entrance-of-the-church-ft160_medium.jpg2017-01-12 05:08 188K 
[IMG]108678092-the-icelandic-horse-is-a-breed-of-horse-developed-in-iceland-although-the-horses-are-small-at-times-pony-sized-most-registries-for-the-icelandic-refer-to-it-as-a-horse-ft160_medium.jpg2017-01-12 05:06 159K 
[IMG]108678094-the-perito-moreno-glacier-is-a-glacier-located-in-the-los-glaciares-national-park-in-the-santa-cruz-province-argentina-it-is-one-of-the-most-important-tourist-attractions-in-the-argentine-patagonia-ft160_medium.jpg2017-01-12 05:03 158K 
[IMG]108678104-the-perito-moreno-glacier-is-a-glacier-located-in-the-los-glaciares-national-park-in-the-santa-cruz-province-argentina-it-is-one-of-the-most-important-tourist-attractions-in-the-argentine-patagonia-ft160_medium.jpg2017-01-12 05:09 152K 
[IMG]108678112-the-perito-moreno-glacier-is-a-glacier-located-in-the-los-glaciares-national-park-in-the-santa-cruz-province-argentina-it-is-one-of-the-most-important-tourist-attractions-in-the-argentine-patagonia-ft160_medium.jpg2017-01-12 05:06 139K 
[IMG]108678114-the-icelandic-horse-is-a-breed-of-horse-developed-in-iceland-although-the-horses-are-small-at-times-pony-sized-most-registries-for-the-icelandic-refer-to-it-as-a-horse-ft160_medium.jpg2017-01-12 05:02 162K 
[IMG]108678138-green-certified-bio-product-badge-with-silver-border-ft160_medium.jpg2017-01-12 05:05 176K 
[IMG]108678140-winter-landscape-bromont-quebec-canada-ft160_medium.jpg2017-01-12 05:02 163K 
[IMG]108678144-garbage-trash-bin-with-recycle-symbolft160_medium.jpg2017-01-12 05:01 135K 
[IMG]108678146-green-certified-bio-product-badge-with-gold-border-ft160_medium.jpg2017-01-12 05:02 182K 
[IMG]108678149-beautiful-brunette-bride-in-a-wedding-dress-and-handsome-groom-softly-embracing-near-the-church-camera-movement-in-slow-motionft160_medium.jpg2017-01-12 05:07 161K 
[IMG]108678152-gruener-bio-produkt-siegel-mit-silber-rand-ft160_medium.jpg2017-01-12 04:59 179K 
[IMG]108678157-gruener-bio-produkt-siegel-mit-gold-rand-ft160_medium.jpg2017-01-12 05:07 185K 
[IMG]108678160-silber-100-prozent-vegan-produkt-siegel-ft160_medium.jpg2017-01-12 05:00 175K 
[IMG]108678170-gold-100-prozent-vegan-produkt-siegel-ft160_medium.jpg2017-01-12 05:09 181K 
[IMG]108678172-woman-has-been-confirmed-the-smart-watch-at-the-beachft160_medium.jpg2017-01-12 05:04 161K 
[IMG]108678189-spider-flower-cleome-hassleriana-in-the-gardenft160_medium.jpg2017-01-12 05:00 246K 
[IMG]108678195-view-of-an-elephant-covered-in-white-mud-etosha-national-park-namibia-africa-ft160_medium.jpg2017-01-12 05:06 171K 
[IMG]108678201-the-giraffe-giraffa-camelopardalis-is-an-african-even-toed-ungulate-mammal-the-tallest-of-all-extant-land-living-animal-species-and-the-largest-ruminant-ft160_medium.jpg2017-01-12 05:09 163K 
[IMG]108678207-the-yak-is-a-long-haired-bovid-found-throughout-the-himalayan-region-of-south-central-asia-the-tibetan-plateau-and-as-far-north-as-mongolia-and-russia-ft160_medium.jpg2017-01-12 05:07 167K 
[IMG]108678211-view-of-an-elephant-covered-in-white-mud-etosha-national-park-namibia-africa-ft160_medium.jpg2017-01-12 05:05 171K 
[IMG]108678213-the-giraffe-giraffa-camelopardalis-is-an-african-even-toed-ungulate-mammal-the-tallest-of-all-extant-land-living-animal-species-and-the-largest-ruminant-ft160_medium.jpg2017-01-12 05:01 172K 
[IMG]108678227-view-of-an-elephant-covered-in-white-mud-etosha-national-park-namibia-africa-ft160_medium.jpg2017-01-12 05:04 176K 
[IMG]108678237--himba-house-the-himba-are-indigenous-peoples-living-in-northern-namibia-in-the-kunene-region-of-south-west-africa-ft160_medium.jpg2017-01-12 05:07 152K 
[IMG]108678242-wassertropfenfotografieft160_medium.jpg2017-01-12 05:03 185K 
[IMG]108678246-view-of-an-elephant-covered-in-white-mud-etosha-national-park-namibia-africa-ft160_medium.jpg2017-01-12 05:03 181K 
[IMG]108678249-gorillas-are-the-largest-extant-species-of-primates-they-are-ground-dwelling-predominantly-herbivorous-apes-that-inhabit-the-forests-of-central-africa-ft160_medium.jpg2017-01-12 05:03 184K 
[IMG]108678267-gorillas-are-the-largest-extant-species-of-primates-they-are-ground-dwelling-predominantly-herbivorous-apes-that-inhabit-the-forests-of-central-africa-ft160_medium.jpg2017-01-12 05:07 163K 
[IMG]108678280-the-orangutans-orang-utan-orangutang-or-orang-utang-are-the-two-exclusively-asian-species-of-extant-great-apes-native-to-indonesia-and-malaysia-in-the-rainforests-of-borneo-and-sumatra-ft160_medium.jpg2017-01-12 05:00 162K 
[IMG]108678281-flat-illustration-about-security-system-ft160_medium.jpg2017-01-12 05:00 144K 
[IMG]108678282-rhinoceros-also-known-as-rhino-is-a-group-of-five-extant-species-of-odd-toed-ungulates-in-the-family-rhinocerotidae-two-of-these-species-are-native-to-africa-and-three-to-southern-asia-ft160_medium.jpg2017-01-12 05:09 176K 
[IMG]108678287-gorillas-are-the-largest-extant-species-of-primates-they-are-ground-dwelling-predominantly-herbivorous-apes-that-inhabit-the-forests-of-central-africa-ft160_medium.jpg2017-01-12 05:07 168K 
[IMG]108678300ft160_medium.jpg2017-01-12 05:04 165K 
[IMG]108678317-flat-illustration-about-security-system-ft160_medium.jpg2017-01-12 05:05 145K 
[IMG]108678319-gorillas-are-the-largest-extant-species-of-primates-they-are-ground-dwelling-predominantly-herbivorous-apes-that-inhabit-the-forests-of-central-africa-ft160_medium.jpg2017-01-12 05:06 181K 
[IMG]108678328-white-heron-eating-koi-fish-the-great-egret-ardea-alba-also-known-as-the-common-egret-large-egret-or-in-the-old-world-great-white-heron-is-a-large-widely-distributed-egret-ft160_medium.jpg2017-01-12 05:08 153K 
[IMG]108678331-pelicans-are-a-large-water-birds-they-are-characterised-by-a-long-beak-and-large-throat-pouch-used-for-catching-prey-and-draining-water-from-the-scooped-up-contents-before-swallowing-ft160_medium.jpg2017-01-12 05:06 144K 
[IMG]108678341--himba-house-the-himba-are-indigenous-peoples-living-in-northern-namibia-in-the-kunene-region-of-south-west-africa-ft160_medium.jpg2017-01-12 05:07 174K 
[IMG]108678346-industrial-worker-welding-steel-duct-pipe-by-using-metal-torch-in-sunny-winter-dayft160_medium.jpg2017-01-12 05:05 142K 
[IMG]108678352-the-giraffe-and-wildebeestft160_medium.jpg2017-01-12 05:06 173K 
[IMG]108678353-planet-in-the-background-galaxies-and-luminous-stars-over-color-elements-of-this-image-furnished-by-nasaft160_medium.jpg2017-01-12 05:07 140K 
[IMG]108678358-typical-arabic-architecture-entrance-ft160_medium.jpg2017-01-12 04:59 214K 
[IMG]108678368--himba-house-the-himba-are-indigenous-peoples-living-in-northern-namibia-in-the-kunene-region-of-south-west-africa-ft160_medium.jpg2017-01-12 05:03 160K 
[IMG]108678375-sensual-newlywed-couple-hugging-near-old-church-camera-movement-in-slow-motionft160_medium.jpg2017-01-12 05:07 150K 
[IMG]108678381-wassertropfenfotografieft160_medium.jpg2017-01-12 05:03 240K 
[IMG]108678402-think-different-design-over-white-backgroundft160_medium.jpg2017-01-12 05:07 131K 
[IMG]108678403-treble-clef-business-art-music-logo-for-company-vectorft160_medium.jpg2017-01-12 05:05 142K 
[IMG]108678413-icon-set-e-commerce-flat-design-shopping-symbols-and-elementsft160_medium.jpg2017-01-12 04:59 171K 
[IMG]108678420-the-perito-moreno-glacier-is-a-glacier-located-in-the-los-glaciares-national-park-in-the-santa-cruz-province-argentina-it-is-one-of-the-most-important-tourist-attractions-in-the-argentine-patagonia-ft160_medium.jpg2017-01-12 05:05 192K 
[IMG]108678421-think-different-design-over-white-backgroundft160_medium.jpg2017-01-12 05:08 158K 
[IMG]108678424-iceberg-cape-bonavista-newfoundland-canada-ft160_medium.jpg2017-01-12 05:09 129K 
[IMG]108678441-iceberg-cape-bonavista-newfoundland-canada-ft160_medium.jpg2017-01-12 05:01 147K 
[IMG]108678443-whistler-mountain-brithis-columbia-canada-ft160_medium.jpg2017-01-12 05:09 139K 
[IMG]108678446-the-perito-moreno-glacier-is-a-glacier-located-in-the-los-glaciares-national-park-in-the-santa-cruz-province-argentina-it-is-one-of-the-most-important-tourist-attractions-in-the-argentine-patagonia-ft160_medium.jpg2017-01-12 05:03 176K 
[IMG]108678451-iceberg-cape-bonavista-newfoundland-canada-ft160_medium.jpg2017-01-12 05:09 143K 
[IMG]108678457-whistler-mountain-brithis-columbia-canada-ft160_medium.jpg2017-01-12 05:05 153K 
[IMG]108678473-the-sunflower-is-an-annual-plant-native-to-the-americas-it-possesses-a-large-inflorescence-and-its-name-is-derived-from-the-flower-s-shape-and-image-which-is-often-used-to-depict-the-sun-ft160_medium.jpg2017-01-12 05:02 196K 
[IMG]108678478-the-saguaro-is-an-arborescent-tree-like-cactus-species-in-the-monotypic-genus-carnegiea-it-is-native-to-the-sonoran-desert-saguaro-national-park-in-the-u-s-state-of-arizona-ft160_medium.jpg2017-01-12 05:01 132K 
[IMG]108678493-think-different-design-over-white-backgroundft160_medium.jpg2017-01-12 05:08 156K 
[IMG]108678497-smart-man-using-digital-tablet-near-poolft160_medium.jpg2017-01-12 05:06 164K 
[IMG]108678498-planet-in-the-background-galaxies-and-luminous-stars-over-color-elements-of-this-image-furnished-by-nasaft160_medium.jpg2017-01-12 05:02 135K 
[IMG]108678500-illustration-of-blue-marlin-fish-cartoonft160_medium.jpg2017-01-12 05:06 167K 
[IMG]108678502-lilies-are-a-group-of-flowering-plants-which-are-important-in-culture-and-literature-in-much-of-the-world-most-species-are-native-to-the-temperate-northern-hemisphere-ft160_medium.jpg2017-01-12 04:59 205K 
[IMG]108678510-elephants-are-large-mammals-of-the-family-elephantidae-and-the-order-proboscidea-two-species-are-traditionally-recognised-the-african-elephant-loxodonta-africana-and-the-asian-elephant-ft160_medium.jpg2017-01-12 05:09 176K 
[IMG]108678511-personal-trainer-helping-men-working-out-in-weights-room-at-the-gymft160_medium.jpg2017-01-12 05:09 171K 
[IMG]108678513-lilies-are-a-group-of-flowering-plants-which-are-important-in-culture-and-literature-in-much-of-the-world-most-species-are-native-to-the-temperate-northern-hemisphere-ft160_medium.jpg2017-01-12 05:00 211K 
[IMG]108678515-deadvlei-is-a-white-clay-pan-located-near-the-more-famous-salt-pan-of-sossusvlei-inside-the-namib-naukluft-park-in-namibia-also-written-deadvlei-or-dead-vlei-its-name-means-dead-marsh-ft160_medium.jpg2017-01-12 05:07 152K 
[IMG]108678518-gym-woman-exercising-with-her-personal-trainerft160_medium.jpg2017-01-12 05:02 164K 
[IMG]108678525-views-of-the-dolomites-italian-alps-ft160_medium.jpg2017-01-12 05:06 194K 
[IMG]108678526-personal-trainer-working-with-his-client-in-gymft160_medium.jpg2017-01-12 05:00 156K 
[IMG]108678537-lilies-are-a-group-of-flowering-plants-which-are-important-in-culture-and-literature-in-much-of-the-world-most-species-are-native-to-the-temperate-northern-hemisphere-ft160_medium.jpg2017-01-12 05:08 207K 
[IMG]108678546-hills-at-sunset-sceneryft160_medium.jpg2017-01-12 05:06 100K 
[IMG]108678547-flat-illustration-about-oil-price-petroleum-and-gas-conceptsft160_medium.jpg2017-01-12 05:00 138K 
[IMG]108678549-ace-cards-on-topft160_medium.jpg2017-01-12 05:01 108K 
[IMG]108678550-planet-in-the-background-galaxies-and-luminous-stars-over-color-elements-of-this-image-furnished-by-nasaft160_medium.jpg2017-01-12 05:06 131K 
[IMG]108678551-fitness-sport-training-and-people-concept-personal-trainer-helping-woman-working-with-in-gymft160_medium.jpg2017-01-12 05:04 197K 
[IMG]108678553-summer-and-beach-simple-flat-iconsft160_medium.jpg2017-01-12 05:04 194K 
[IMG]108678554-flat-illustration-about-oil-price-petroleum-and-gas-conceptsft160_medium.jpg2017-01-12 05:06 135K 
[IMG]108678555-liquid-metal-typefaceft160_medium.jpg2017-01-12 04:59 178K 
[IMG]108678565-sexy-young-girl-resting-after-squat-exercises-fitness-brunette-womanft160_medium.jpg2017-01-12 05:07 176K 
[IMG]108678566-amazing-aerial-pan-of-downtown-seattle-with-interstate-5-freeway-and-financiaft160_medium.jpg2017-01-12 05:04 172K 
[IMG]108678571-bicycle-road-sign-and-bike-riderft160_medium.jpg2017-01-12 05:06 157K 
[IMG]108678572-flat-illustration-about-oil-price-petroleum-and-gas-conceptsft160_medium.jpg2017-01-12 05:03 164K 
[IMG]108678574-mother-and-son-climbing-stairs-ft160_medium.jpg2017-01-12 05:08 151K 
[IMG]108678577-nice-sexy-woman-doing-workout-with-dumbbells-in-gymft160_medium.jpg2017-01-12 05:08 192K 
[IMG]108678581-glamorous-lady-looking-into-the-distanceft160_medium.jpg2017-01-12 05:05 124K 
[IMG]108678584-red-concrete-wall-background-walls-with-rough-surfaces-ft160_medium.jpg2017-01-12 05:03 248K 
[IMG]108678585-smiling-lovely-lady-portraitft160_medium.jpg2017-01-12 05:09 167K 
[IMG]108678592-smiling-glamorous-woman-closeft160_medium.jpg2017-01-12 05:03 152K 
[IMG]108678597-fitness-sport-training-and-people-concept-happy-young-woman-stretching-before-running-in-gymft160_medium.jpg2017-01-12 05:07 143K 
[IMG]108678605ft160_medium.jpg2017-01-12 05:06 171K 
[IMG]108678607-fitness-sport-training-and-people-concept-happy-young-woman-stretching-before-running-in-gymft160_medium.jpg2017-01-12 05:08 154K 
[IMG]108678615-planet-in-the-background-galaxies-and-luminous-stars-over-color-elements-of-this-image-furnished-by-nasaft160_medium.jpg2017-01-12 05:00 132K 
[IMG]108678616ft160_medium.jpg2017-01-12 05:08 164K 
[IMG]108678623-flat-illustration-about-oil-price-petroleum-and-gas-conceptsft160_medium.jpg2017-01-12 05:03 145K 
[IMG]108678625-beautiful-woman-in-bikini-relaxing-on-a-sun-loungerft160_medium.jpg2017-01-12 05:01 148K 
[IMG]108678629-naqsh-e-rustam-an-ancient-necropolis-in-pars-province-iranft160_medium.jpg2017-01-12 05:05 151K 
[IMG]108678631ft160_medium.jpg2017-01-12 05:01 172K 
[IMG]108678642-close-up-of-electrocardiogram-chart-backgroundft160_medium.jpg2017-01-12 05:09 133K 
[IMG]108678643-happy-young-woman-is-doing-exercises-with-dumbbells-on-step-board-ft160_medium.jpg2017-01-12 05:07 157K 
[IMG]108678647-close-up-of-electrocardiogram-chart-backgroundft160_medium.jpg2017-01-12 05:01 124K 
[IMG]108678658ft160_medium.jpg2017-01-12 05:07 146K 
[IMG]108678661-the-crystal-clear-sea-surrounding-the-island-of-rab-croatia-ft160_medium.jpg2017-01-12 05:05 177K 
[IMG]108678663-cute-smiling-sun-cartoonft160_medium.jpg2017-01-12 05:03 193K 
[IMG]108678666-black-jack-in-the-handft160_medium.jpg2017-01-12 05:05 134K 
[IMG]108678669-irish-man-drinking-beerft160_medium.jpg2017-01-12 05:04 194K 
[IMG]108678671-close-up-of-electrocardiogram-chart-backgroundft160_medium.jpg2017-01-12 05:08 133K 
[IMG]108678674-close-up-of-electrocardiogram-chart-backgroundft160_medium.jpg2017-01-12 05:03 131K 
[IMG]108678684-mount-bromo-and-batok-volcanoes-in-bromo-tengger-semeru-nationalft160_medium.jpg2017-01-12 05:07 180K 
[IMG]108678696-planet-in-the-background-galaxies-and-luminous-stars-over-color-elements-of-this-image-furnished-by-nasaft160_medium.jpg2017-01-12 05:01 144K 
[IMG]108678700-flat-illustration-about-oil-price-petroleum-and-gas-conceptsft160_medium.jpg2017-01-12 05:02 149K 
[IMG]108678703-happy-valentines-day-iconsft160_medium.jpg2017-01-12 05:09 150K 
[IMG]108678710-close-up-of-electrocardiogram-chart-backgroundft160_medium.jpg2017-01-12 05:05 151K 
[IMG]108678728-close-up-of-electrocardiogram-chart-backgroundft160_medium.jpg2017-01-12 05:08 145K 
[IMG]108678733-stethoscope-on-electrocardiogram-chartft160_medium.jpg2017-01-12 05:02 157K 
[IMG]108678739-outline-brisbane-skyline-with-blue-building-ft160_medium.jpg2017-01-12 05:03 144K 
[IMG]108678743-cute-baby-dragonft160_medium.jpg2017-01-12 05:01 152K 
[IMG]108678750-wassertropfenfotografieft160_medium.jpg2017-01-12 05:06 245K 
[IMG]108678759-stethoscope-on-electrocardiogram-chartft160_medium.jpg2017-01-12 05:06 149K 
[IMG]108678762-hyderabad-city-skyline-black-and-white-silhouette-ft160_medium.jpg2017-01-12 05:06 137K 
[IMG]108678763-wassertropfen-buntft160_medium.jpg2017-01-12 05:10 243K 
[IMG]108678767-black-jack-two-cardft160_medium.jpg2017-01-12 05:06 131K 
[IMG]108678773-stethoscope-on-electrocardiogram-chartft160_medium.jpg2017-01-12 05:08 157K 
[IMG]108678789-black-jack-two-cardsft160_medium.jpg2017-01-12 05:01 107K 
[IMG]108678790-stethoscope-on-electrocardiogram-chartft160_medium.jpg2017-01-12 05:07 143K 
[IMG]108678791-set-of-flat-autumn-iconsft160_medium.jpg2017-01-12 05:06 161K 
[IMG]108678794-stethoscope-on-electrocardiogram-chartft160_medium.jpg2017-01-12 05:06 156K 
[IMG]108678798-riga-skyline-with-landmarks-blue-sky-and-copy-space-ft160_medium.jpg2017-01-12 05:06 200K 
[IMG]108678805-flat-illustration-about-oil-price-petroleum-and-gas-conceptsft160_medium.jpg2017-01-12 05:03 141K 
[IMG]108678806-outline-rio-de-janeiro-skyline-with-blue-buildings-ft160_medium.jpg2017-01-12 05:02 143K 
[IMG]108678809-black-jackft160_medium.jpg2017-01-12 05:03 114K 
[IMG]108678815-set-of-flat-autumn-iconsft160_medium.jpg2017-01-12 05:04 161K 
[IMG]108678818-stethoscope-on-electrocardiogram-chartft160_medium.jpg2017-01-12 05:09 147K 
[IMG]108678822-stethoscope-on-electrocardiogram-chartft160_medium.jpg2017-01-12 05:04 145K 
[IMG]108678824-irish-man-and-craft-beersft160_medium.jpg2017-01-12 05:08 220K 
[IMG]108678835-clubs-set-of-playing-cardsft160_medium.jpg2017-01-12 05:04 115K 
[IMG]108678842-old-red-roof-tiles-ft160_medium.jpg2017-01-12 05:09 240K 
[IMG]108678843-set-of-flat-autumn-iconsft160_medium.jpg2017-01-12 04:59 191K 
[IMG]108678845-stethoscope-on-electrocardiogram-chartft160_medium.jpg2017-01-12 05:04 145K 
[IMG]108678858-stethoscope-on-electrocardiogram-chartft160_medium.jpg2017-01-12 04:59 137K 
[IMG]108678873-stethoscope-on-electrocardiogram-chartft160_medium.jpg2017-01-12 05:03 143K 
[IMG]108678879-stethoscope-on-electrocardiogram-chartft160_medium.jpg2017-01-12 05:01 159K 
[IMG]108678884-a-trickle-of-water-falls-into-a-old-round-tub-of-mossy-stone-ft160_medium.jpg2017-01-12 05:05 192K 
[IMG]108678904-stethoscope-on-electrocardiogram-chartft160_medium.jpg2017-01-12 05:04 151K 
[IMG]108678910-gold-best-price-guarantee-badge-with-ribbon-on-white-background-ft160_medium.jpg2017-01-12 05:06 178K 
[IMG]108678917-stethoscope-on-electrocardiogram-chartft160_medium.jpg2017-01-12 05:01 132K 
[IMG]108678923-silver-best-price-guarantee-badge-with-ribbon-on-white-background-ft160_medium.jpg2017-01-12 05:02 175K 
[IMG]108678936-pink-desert-rose-or-impala-lily-or-mock-azalea-flower-ft160_medium.jpg2017-01-12 05:08 157K 
[IMG]108678941-stack-of-coins-coin-line-art-icon-for-apps-and-websitesft160_medium.jpg2017-01-12 05:08 133K 
[IMG]108678953-technology-design-over-white-backgroundft160_medium.jpg2017-01-12 05:07 138K 
[IMG]108678959-classic-clock-on-the-chair-with-sea-backgroundft160_medium.jpg2017-01-12 05:00 153K 
[IMG]108678977-vintage-east-copper-handmade-tea-cups-setft160_medium.jpg2017-01-12 05:07 199K 
[IMG]108678985ft160_medium.jpg2017-01-12 05:02 162K 
[IMG]108678995-technology-design-over-white-backgroundft160_medium.jpg2017-01-12 05:04 127K 
[IMG]108678999-citizenship-documents-with-us-flagft160_medium.jpg2017-01-12 05:09 199K 
[IMG]108679001-insurance-concept-design-ft160_medium.jpg2017-01-12 05:05 145K 
[IMG]108679004-set-of-flat-autumn-iconsft160_medium.jpg2017-01-12 05:04 185K 
[IMG]108679017-cycling-helmet-dark-blueft160_medium.jpg2017-01-12 05:06 160K 
[IMG]108679024-immigration-documents-with-us-flagft160_medium.jpg2017-01-12 05:08 197K 
[IMG]108679028-pavillion-of-the-enlightened-ancient-city-samutprakarn-thailand-ft160_medium.jpg2017-01-12 05:01 174K 
[IMG]108679032-man-gets-a-drink-from-water-fountain-near-restrooms-ft160_medium.jpg2017-01-12 05:06 134K 
[IMG]108679041-insurance-concept-design-ft160_medium.jpg2017-01-12 05:03 150K 
[IMG]108679049-granite-tiles-floorft160_medium.jpg2017-01-12 05:01 199K 
[IMG]108679072-citizenship-papers-with-us-flagft160_medium.jpg2017-01-12 05:05 193K 
[IMG]108679089-fireworks-light-ft160_medium.jpg2017-01-12 05:07 144K 
[IMG]108679114-beautiful-asian-girl-teacher-with-tablet-and-blackboardft160_medium.jpg2017-01-12 05:08 122K 
[IMG]108679121ft160_medium.jpg2017-01-12 05:06 159K 
[IMG]108679157-greek-salad-on-a-light-wood-backgroundft160_medium.jpg2017-01-12 05:04 172K 
[IMG]108679186-chicken-meatballs-and-fresh-vegetables-tacos-healthy-delicious-breakfast-or-snack-on-light-wooden-rustic-backgroundft160_medium.jpg2017-01-12 05:06 233K 
[IMG]108679199-oatmeal-scones-on-a-light-background-healthy-foodft160_medium.jpg2017-01-12 05:08 181K 
[IMG]108679222-flat-illustration-about-achievement-designft160_medium.jpg2017-01-12 05:08 140K 
[IMG]108679238-colorful-dragon-statue-on-black-backgroundft160_medium.jpg2017-01-12 05:02 189K 
[IMG]108679240-composition-of-red-box-with-golden-shiny-wedding-rings-and-red-roses-on-foregroundft160_medium.jpg2017-01-12 05:06 127K 
[IMG]108679262-flat-illustration-about-achievement-designft160_medium.jpg2017-01-12 05:04 148K 
[IMG]108679276-women-who-have-confirmed-the-wearable-device-at-the-beachft160_medium.jpg2017-01-12 05:00 126K 
[IMG]108679286-mother-and-baby-proboscis-monkey-in-tree-ft160_medium.jpg2017-01-12 05:06 182K 
[IMG]108679296-flat-illustration-about-achievement-designft160_medium.jpg2017-01-12 05:09 165K 
[IMG]108679307ft160_medium.jpg2017-01-12 05:07 174K 
[IMG]108679309-blossom-backgroundft160_medium.jpg2017-01-12 05:07 218K 
[IMG]108679310-woman-wearing-a-white-dress-is-walking-the-beachft160_medium.jpg2017-01-12 05:02 149K 
[IMG]108679328-woman-wearing-a-white-dress-is-walking-the-beachft160_medium.jpg2017-01-12 05:08 139K 
[IMG]108679369-flat-illustration-of-bike-lifesyle-designft160_medium.jpg2017-01-12 04:59 174K 
[IMG]108679384-milling-machine-processft160_medium.jpg2017-01-12 05:09 179K 
[IMG]108679385-flat-illustration-of-bike-lifesyle-designft160_medium.jpg2017-01-12 05:01 181K 
[IMG]108679396ft160_medium.jpg2017-01-12 05:09 164K 
[IMG]108679402-table-and-chairs-in-empty-cafe-thailand-ft160_medium.jpg2017-01-12 05:01 155K 
[IMG]108679409-woodwork-apprenticeshipft160_medium.jpg2017-01-12 05:03 140K 
[IMG]108679415-flag-of-thailandft160_medium.jpg2017-01-12 05:06 141K 
[IMG]108679433-colorful-dragon-statue-with-blue-sky-at-nakornsawan-park-thailandft160_medium.jpg2017-01-12 05:05 203K 
[IMG]108679461--panorama-view-of-ancient-wat-in-ayutthaya-historical-park-thailandft160_medium.jpg2017-01-12 05:07 172K 
[IMG]108679475-portrait-of-nice-panda-bear-walking-in-summer-environmentft160_medium.jpg2017-01-12 05:04 192K 
[IMG]108679502-yellow-watermelon-close-up-outdoorsft160_medium.jpg2017-01-12 05:05 179K 
[IMG]108679552-pavillion-of-the-enlightened-ancient-city-samutprakarn-thailand-ft160_medium.jpg2017-01-12 05:03 195K 
[IMG]108679564-bizarre-rock-hin-ta-hin-yai-very-famous-landmark-of-samui-thailandft160_medium.jpg2017-01-12 05:02 163K 
[IMG]108679606-chinese-statue-of-guan-yu-in-island-koh-samui-thailandft160_medium.jpg2017-01-12 05:07 160K 
[IMG]108679607-puzzle-icon-modern-design-flat-styleft160_medium.jpg2017-01-12 05:04 149K 
[IMG]108679610-puzzle-icon-modern-design-flat-styleft160_medium.jpg2017-01-12 04:59 139K 
[IMG]108679620-colorful-shiny-puzzle-vector-illustration-ft160_medium.jpg2017-01-12 05:07 196K 
[IMG]108679624-colorful-shiny-puzzle-vector-illustration-ft160_medium.jpg2017-01-12 05:09 224K 
[IMG]108679633-puzzle-icon-modern-design-flat-styleft160_medium.jpg2017-01-12 05:01 111K 
[IMG]108679635-puzzle-icon-modern-design-flat-styleft160_medium.jpg2017-01-12 05:06 124K 
[IMG]108679680-trailer-for-boats-on-the-beach-with-golden-sunsetft160_medium.jpg2017-01-12 05:07 147K 
[IMG]108679687-flat-illustration-about-achievement-designft160_medium.jpg2017-01-12 05:03 131K 
[IMG]108679698-beautiful-golf-course-and-palm-tree-island-koh-samui-thailandft160_medium.jpg2017-01-12 05:09 200K 
[IMG]108679700-a-shocked-asian-ladyft160_medium.jpg2017-01-12 05:05 141K 
[IMG]108679711-colorful-dragon-statue-with-blue-sky-and-clouds-on-heavenft160_medium.jpg2017-01-12 04:59 208K 
[IMG]108679740-portrait-of-young-beautiful-woman-in-spa-environmentft160_medium.jpg2017-01-12 05:06 171K 
[IMG]108679751-place-the-camera-on-a-notebook-camera-card-ft160_medium.jpg2017-01-12 05:04 165K 
[IMG]108679769-view-of-modern-nice-colored-building-made-of-glass-ft160_medium.jpg2017-01-12 05:09 185K 
[IMG]108679776-tyn-church-in-pragueft160_medium.jpg2017-01-12 05:03 165K 
[IMG]108679793-external-hdd-usb-and-laptop-ft160_medium.jpg2017-01-12 05:04 138K 
[IMG]108679794-prague-bridges-viewft160_medium.jpg2017-01-12 04:59 170K 
[IMG]108679796-butterfly-bokeh-backgroundft160_medium.jpg2017-01-12 05:04 187K 
[IMG]108679798-portrait-of-young-smiling-happy-woman-getting-through-the-sunflower-fieldft160_medium.jpg2017-01-12 05:06 224K 
[IMG]108679861-portrait-of-young-beautiful-woman-relaxing-in-spa-environmentft160_medium.jpg2017-01-12 05:01 161K 
[IMG]108679866-dollars-brush-line-illustration-ft160_medium.jpg2017-01-12 04:59 135K 
[IMG]108679882-baby-elephant-chasing-buffaloft160_medium.jpg2017-01-12 05:03 165K 
[IMG]108679905-flat-illustration-of-healthy-lifestyle-design-ft160_medium.jpg2017-01-12 04:59 134K 
[IMG]108679910ft160_medium.jpg2017-01-12 05:05 162K 
[IMG]108679939ft160_medium.jpg2017-01-12 05:08 154K 
[IMG]108679963-view-of-nice-fresh-hot-crepes-with-berries-on-color-backgroundft160_medium.jpg2017-01-12 05:05 218K 
[IMG]108679974-portrait-of-young-beautiful-woman-in-spa-environmentft160_medium.jpg2017-01-12 05:09 157K 
[IMG]108679978-flat-illustration-of-healthy-lifestyle-design-ft160_medium.jpg2017-01-12 05:06 147K 
[IMG]108679981-gold-dragon-isolated-on-white-backgroundft160_medium.jpg2017-01-12 05:09 175K 
[IMG]108679988-due-date-text-on-the-calendar-page-ft160_medium.jpg2017-01-12 05:01 133K 
[IMG]108680041-oriental-ornaments-from-nasir-al-mulk-mosque-shiraz-iranft160_medium.jpg2017-01-12 05:03 259K 
[IMG]108680074-currency-icons-dollar-euro-pound-sterling-yen-or-yuan-brush-style-illustration-ft160_medium.jpg2017-01-12 05:00 179K 
[IMG]108680080-giraffe-on-isolated-background-ft160_medium.jpg2017-01-12 05:04 137K 
[IMG]108680102-background-stone-wall-vector-illustrationft160_medium.jpg2017-01-12 05:02 154K 
[IMG]108680113-cute-sea-turtleft160_medium.jpg2017-01-12 05:07 165K 
[IMG]108680115-flat-illustration-of-healthy-lifestyle-design-ft160_medium.jpg2017-01-12 05:04 127K 
[IMG]108680141-herbal-tablets-in-wooden-spoon-with-green-leaf-ft160_medium.jpg2017-01-12 05:03 149K 
[IMG]108680143-surf-grunge-frameft160_medium.jpg2017-01-12 05:09 211K 
[IMG]108680175-herbal-tablets-in-wooden-spoon-with-green-leaf-ft160_medium.jpg2017-01-12 05:02 142K 
[IMG]108680181-flat-illustration-of-healthy-lifestyle-design-ft160_medium.jpg2017-01-12 05:04 147K 
[IMG]108680191-flat-illustration-of-gluten-free-design-ft160_medium.jpg2017-01-12 05:06 137K 
[IMG]108680193-screw-being-screwed-into-a-piece-of-woodft160_medium.jpg2017-01-12 05:04 117K 
[IMG]108680196ft160_medium.jpg2017-01-12 04:59 124K 
[IMG]108680201-ssd-disk-solid-state-drive-ft160_medium.jpg2017-01-12 05:02 120K 
[IMG]108680207ft160_medium.jpg2017-01-12 05:06 136K 
[IMG]108680215-3d-illustration-of-rising-arrow-and-2016ft160_medium.jpg2017-01-12 05:01 127K 
[IMG]108680221-vintage-surf-frameft160_medium.jpg2017-01-12 05:02 208K 
[IMG]108680227-hard-disk-next-to-ssd-disk-solid-state-drive-blue-technologicaft160_medium.jpg2017-01-12 05:01 127K 
[IMG]108680237-clock-face-and-diary-with-pen-ft160_medium.jpg2017-01-12 05:00 172K 
[IMG]108680253-thai-giant-monk-statueft160_medium.jpg2017-01-12 05:08 148K 
[IMG]108680258-cute-baby-dragonft160_medium.jpg2017-01-12 05:03 161K 
[IMG]108680265-hand-on-computer-keyboard-for-business-concept-background-select-focus-ft160_medium.jpg2017-01-12 05:09 150K 
[IMG]108680267-blue-sky-background-with-clouds-ft160_medium.jpg2017-01-12 05:06 129K 
[IMG]108680270-abstract-polygonal-space-low-poly-dark-backgroundft160_medium.jpg2017-01-12 05:04 120K 
[IMG]108680285-earth-reminder-with-leaves-vines-and-cards-for-earth-day-vector-illustrationft160_medium.jpg2017-01-12 05:02 175K 
[IMG]108680291-blue-sky-background-with-clouds-ft160_medium.jpg2017-01-12 05:01 141K 
[IMG]108680294-bonnes-vacancesft160_medium.jpg2017-01-12 05:06 124K 
[IMG]108680304-a-lot-of-different-yellow-and-white-old-metal-keys-backgroundft160_medium.jpg2017-01-12 05:05 272K 
[IMG]108680317-surf-frame-with-surferft160_medium.jpg2017-01-12 05:03 211K 
[IMG]108680323-vive-les-vacancesft160_medium.jpg2017-01-12 05:01 146K 
[IMG]108680343-clubs-setft160_medium.jpg2017-01-12 05:07 116K 
[IMG]108680353-man-hugging-world-representation-in-earth-day-vector-illustrationft160_medium.jpg2017-01-12 05:02 175K 
[IMG]108680359-c-est-les-vacancesft160_medium.jpg2017-01-12 05:09 147K 
[IMG]108680378-vacancesft160_medium.jpg2017-01-12 05:01 171K 
[IMG]108680397-cute-baby-dinosaur-cartoonft160_medium.jpg2017-01-12 05:07 151K 
[IMG]108680403-vive-les-vacancesft160_medium.jpg2017-01-12 05:03 129K 
[IMG]108680416-diamonds-set-of-playing-cardsft160_medium.jpg2017-01-12 05:03 112K 
[IMG]108680431-vive-les-vacancesft160_medium.jpg2017-01-12 05:04 140K 
[IMG]108680442ft160_medium.jpg2017-01-12 05:09 154K 
[IMG]108680450-preparing-average-sales-reportft160_medium.jpg2017-01-12 05:07 179K 
[IMG]108680454-diamonds-setft160_medium.jpg2017-01-12 04:59 114K 
[IMG]108680472-thai-giant-monk-statueft160_medium.jpg2017-01-12 05:05 154K 
[IMG]108680480ft160_medium.jpg2017-01-12 05:05 145K 
[IMG]108680487-c-est-les-vacancesft160_medium.jpg2017-01-12 05:08 156K 
[IMG]108680500-chicken-eggft160_medium.jpg2017-01-12 05:01 113K 
[IMG]108680511-vive-les-vacancesft160_medium.jpg2017-01-12 05:03 155K 
[IMG]108680514-boy-at-sea-8ft160_medium.jpg2017-01-12 05:06 152K 
[IMG]108680518ft160_medium.jpg2017-01-12 05:03 104K 
[IMG]108680519-long-grain-riceft160_medium.jpg2017-01-12 05:02 133K 
[IMG]108680520-affiche-vacancesft160_medium.jpg2017-01-12 05:04 175K 
[IMG]108680542-world-being-protected-in-earth-day-celebration-vector-illustrationft160_medium.jpg2017-01-12 05:08 150K 
[IMG]108680544-offer-word-cloud-business-conceptft160_medium.jpg2017-01-12 04:59 206K 
[IMG]108680546-vive-les-vacancesft160_medium.jpg2017-01-12 05:02 163K 
[IMG]108680550-pink-camellia-in-the-blurry-backgroundft160_medium.jpg2017-01-12 05:04 159K 
[IMG]108680554-lit-high-multi-storey-buildings-under-construction-and-cranes-atft160_medium.jpg2017-01-12 05:07 189K 
[IMG]108680564-abstract-business-digital-backgroundft160_medium.jpg2017-01-12 05:02 218K 
[IMG]108680573-cloudy-blue-sky-abstract-background-blue-sky-background-with-tift160_medium.jpg2017-01-12 05:08 114K 
[IMG]108680587-heart-set-of-playing-cardsft160_medium.jpg2017-01-12 05:06 121K 
[IMG]108680606-heart-setft160_medium.jpg2017-01-12 05:09 113K 
[IMG]108680616-aerial-view-of-red-tiled-rooftops-and-ancient-towers-in-historical-center-of-bologna-italyft160_medium.jpg2017-01-12 05:02 232K 
[IMG]108680627-shield-formed-for-leaves-with-world-for-earth-day-vector-illustrationft160_medium.jpg2017-01-12 05:04 174K 
[IMG]108680644-alter-holzrahmen-silber-lackiert-mit-freistellpfadft160_medium.jpg2017-01-12 05:03 141K 
[IMG]108680656-view-to-the-coast-of-lake-baikalft160_medium.jpg2017-01-12 05:08 200K 
[IMG]108680659-sport-of-athletics-concept-vector-illustration-track-and-field-competition-games-sportsman-running-jumping-throwing-ft160_medium.jpg2017-01-12 05:08 243K 
[IMG]108680673-using-innovative-technologiesft160_medium.jpg2017-01-12 05:05 161K 
[IMG]108680708--french-bulldog-design-pet-and-animal-concept-ft160_medium.jpg2017-01-12 04:59 132K 
[IMG]108680726-summer-landscape-in-suzdalft160_medium.jpg2017-01-12 05:03 177K 
[IMG]108680730-foot-prints-on-a-sandy-beachft160_medium.jpg2017-01-12 05:06 147K 
[IMG]108680752--french-bulldog-design-pet-and-animal-concept-ft160_medium.jpg2017-01-12 05:00 127K 
[IMG]108680776-coffee-break-with-cookiesft160_medium.jpg2017-01-12 05:05 139K 
[IMG]108680777-moon-space-station-vector-illustrationft160_medium.jpg2017-01-12 05:03 183K 
[IMG]108680778--french-bulldog-design-pet-and-animal-concept-ft160_medium.jpg2017-01-12 05:02 129K 
[IMG]108680784-world-no-tobacco-dayft160_medium.jpg2017-01-12 05:08 138K 
[IMG]108680787--french-bulldog-design-pet-and-animal-concept-ft160_medium.jpg2017-01-12 05:03 136K 
[IMG]108680800-loewenzahnwiese-in-bayern-mit-bergen-und-seeft160_medium.jpg2017-01-12 05:05 164K 
[IMG]108680816-school-of-soldierfish-and-other-coral-reef-fish-inhabit-an-artificial-reef-at-mabul-island-borneo-ft160_medium.jpg2017-01-12 05:02 161K 
[IMG]108680842-wassertropfen-buntft160_medium.jpg2017-01-12 05:05 249K 
[IMG]108680886-bright-makeup-beautiful-girl-holding-watermelon-lollipop-ft160_medium.jpg2017-01-12 05:05 151K 
[IMG]108680889-asian-woman-tighten-safety-belt-in-carft160_medium.jpg2017-01-12 05:00 137K 
[IMG]108680896-flat-illustration-of-profit-design-editable-vectorft160_medium.jpg2017-01-12 05:03 132K 
[IMG]108680897-bright-makeup-beautiful-girl-holding-watermelon-lollipop-ft160_medium.jpg2017-01-12 05:03 151K 
[IMG]108680905-flat-illustration-of-cartoon-face-design-heart-shape-and-love-cft160_medium.jpg2017-01-12 05:00 144K 
[IMG]108680907-bright-makeup-beautiful-girl-holding-watermelon-lollipop-ft160_medium.jpg2017-01-12 05:05 149K 
[IMG]108680913-flat-illustration-of-cartoon-face-design-heart-shape-and-love-cft160_medium.jpg2017-01-12 05:03 143K 
[IMG]108680920-flat-illustration-of-cartoon-face-design-heart-shape-and-love-cft160_medium.jpg2017-01-12 05:09 145K 
[IMG]108680926-flat-illustration-of-cartoon-face-design-heart-shape-and-love-cft160_medium.jpg2017-01-12 04:59 146K 
[IMG]108680938-flat-illustration-of-cartoon-face-design-heart-shape-and-love-cft160_medium.jpg2017-01-12 05:01 145K 
[IMG]108680944-flat-illustration-of-cartoon-face-design-heart-shape-and-love-cft160_medium.jpg2017-01-12 05:03 140K 
[IMG]108680953-watermelons-on-the-green-watermelon-plantation-ft160_medium.jpg2017-01-12 05:05 234K 
[IMG]108680962-pflegestufe-vs-pflegegradft160_medium.jpg2017-01-12 05:07 173K 
[IMG]108680967-woman-turning-button-of-radio-in-carft160_medium.jpg2017-01-12 05:01 146K 
[IMG]108680982-rat-washes-on-white-backgroundft160_medium.jpg2017-01-12 05:04 109K 
[IMG]108680983-room-interior-with-white-brick-wall-and-wooden-floor-ft160_medium.jpg2017-01-12 05:06 206K 
[IMG]108680986-breaking-news-design-ft160_medium.jpg2017-01-12 05:01 147K 
[IMG]108680990-flat-illustration-of-cartoon-face-design-ft160_medium.jpg2017-01-12 05:02 145K 
[IMG]108680994-stone-texture-quartz-ft160_medium.jpg2017-01-12 05:04 216K 
[IMG]108681001-flat-illustration-of-cartoon-face-design-ft160_medium.jpg2017-01-12 05:08 144K 
[IMG]108681013-flat-illustration-of-cartoon-face-design-ft160_medium.jpg2017-01-12 04:59 144K 
[IMG]108681021-flat-illustration-of-cartoon-face-design-ft160_medium.jpg2017-01-12 05:06 143K 
[IMG]108681028-stone-texture-stone-with-cracks-ft160_medium.jpg2017-01-12 05:01 211K 
[IMG]108681031-flat-illustration-of-cartoon-face-design-ft160_medium.jpg2017-01-12 05:05 145K 
[IMG]108681039-freestyle-swimmer-silhouette-sport-swimmingft160_medium.jpg2017-01-12 05:04 140K 
[IMG]108681040-clubs-bokeh-backgroundft160_medium.jpg2017-01-12 05:09 195K 
[IMG]108681053-grey-leatherft160_medium.jpg2017-01-12 05:07 97K 
[IMG]108681069-soil-water-deficitft160_medium.jpg2017-01-12 05:02 242K 
[IMG]108681101-portrait-of-stone-with-quartz-patternsft160_medium.jpg2017-01-12 05:05 208K 
[IMG]108681113-asian-woman-tighten-safety-belt-in-carft160_medium.jpg2017-01-12 05:08 132K 
[IMG]108681116-segmentation-word-cloud-business-conceptft160_medium.jpg2017-01-12 05:04 215K 
[IMG]108681125-vector-set-of-sewing-studio-icons-matter-model-needle-and-thread-camera-scissors-hair-dryer-iron-mannequin-equipment-ft160_medium.jpg2017-01-12 04:59 176K 
[IMG]108681135-world-no-tobacco-dayft160_medium.jpg2017-01-12 05:08 146K 
[IMG]108681142-blue-sky-with-cloud-closeupft160_medium.jpg2017-01-12 05:06 172K 
[IMG]108681148-beautiful-manicure-gel-polish-coating-in-blue-embossing-ft160_medium.jpg2017-01-12 05:05 154K 
[IMG]108681156-distribution-word-cloud-business-conceptft160_medium.jpg2017-01-12 05:04 215K 
[IMG]108681157-seashellsft160_medium.jpg2017-01-12 04:59 163K 
[IMG]108681170-world-no-tobacco-dayft160_medium.jpg2017-01-12 05:06 156K 
[IMG]108681177-composition-with-assorted-raw-organic-vegetablesft160_medium.jpg2017-01-12 05:05 206K 
[IMG]108681201-beautiful-sunset-over-the-iconic-monument-valley-arizona-usaft160_medium.jpg2017-01-12 04:59 150K 
[IMG]108681209-monument-valley-utah-usaft160_medium.jpg2017-01-12 05:06 155K 
[IMG]108681211-route-nationaleft160_medium.jpg2017-01-12 05:03 132K 
[IMG]108681214-monument-valley-after-sunset-utah-usaft160_medium.jpg2017-01-12 05:04 166K 
[IMG]108681227-small-planet-ocean-tropical-island-palm-treesft160_medium.jpg2017-01-12 05:06 160K 
[IMG]108681243-flat-illustration-of-profit-design-editable-vectorft160_medium.jpg2017-01-12 05:06 135K 
[IMG]108681256-flat-illustration-of-profit-design-editable-vectorft160_medium.jpg2017-01-12 04:59 129K 
[IMG]108681258-flat-illustration-of-profit-design-editable-vectorft160_medium.jpg2017-01-12 05:07 134K 
[IMG]108681259-aerial-view-of-bologna-historical-centerft160_medium.jpg2017-01-12 05:06 220K 
[IMG]108681265-sunny-abstract-green-nature-background-ft160_medium.jpg2017-01-12 05:03 150K 
[IMG]108681268--contact-us-on-the-screenft160_medium.jpg2017-01-12 05:01 97K 
[IMG]108681290-he-wants-to-be-richft160_medium.jpg2017-01-12 05:09 124K 
[IMG]108681299-bullauge-mit-leuchtturmft160_medium.jpg2017-01-12 05:06 155K 
[IMG]108681311ft160_medium.jpg2017-01-12 05:02 132K 
[IMG]108681316-water-sprinkler-valve-on-a-high-rise-building-ft160_medium.jpg2017-01-12 05:04 164K 
[IMG]108681318-soil-water-deficitft160_medium.jpg2017-01-12 05:04 246K 
[IMG]108681322-colorful-bokeh-glitter-defocused-lights-ft160_medium.jpg2017-01-12 05:05 121K 
[IMG]108681325-world-no-tobacco-dayft160_medium.jpg2017-01-12 05:02 154K 
[IMG]108681335ft160_medium.jpg2017-01-12 05:03 158K 
[IMG]108681343-vector-set-of-sport-shooting-banner-competition-games-people-in-shoot-positionsft160_medium.jpg2017-01-12 05:02 217K 
[IMG]108681350ft160_medium.jpg2017-01-12 05:07 164K 
[IMG]108681351-flat-illustration-of-profit-design-editable-vectorft160_medium.jpg2017-01-12 04:59 132K 
[IMG]108681353ft160_medium.jpg2017-01-12 05:03 200K 
[IMG]108681364-flat-illustration-of-cartoon-face-design-ft160_medium.jpg2017-01-12 05:03 130K 
[IMG]108681368ft160_medium.jpg2017-01-12 04:59 122K 
[IMG]108681374-milwaukee-wisconsin-at-sunset-slow-dolly-wide-angle-shotft160_medium.jpg2017-01-12 04:59 115K 
[IMG]108681375ft160_medium.jpg2017-01-12 05:07 125K 
[IMG]108681376-flat-illustration-of-profit-design-editable-vectorft160_medium.jpg2017-01-12 05:04 143K 
[IMG]108681384-cartoon-tooth-with-tooth-fairyft160_medium.jpg2017-01-12 05:04 157K 
[IMG]108681387-abstract-blue-background-in-motion-blurft160_medium.jpg2017-01-12 05:02 159K 
[IMG]108681391-cartoon-tooth-with-tooth-fairyft160_medium.jpg2017-01-12 05:09 167K 
[IMG]108681395-cartoon-tooth-with-tooth-fairyft160_medium.jpg2017-01-12 05:06 156K 
[IMG]108681398-cartoon-tooth-with-tooth-fairyft160_medium.jpg2017-01-12 04:59 157K 
[IMG]108681402-cartoon-tooth-with-tooth-fairyft160_medium.jpg2017-01-12 05:03 153K 
[IMG]108681409-cartoon-tooth-with-tooth-fairyft160_medium.jpg2017-01-12 05:01 146K 
[IMG]108681410-flat-illustration-of-cartoon-face-design-ft160_medium.jpg2017-01-12 05:05 125K 
[IMG]108681413-cartoon-tooth-with-tooth-fairyft160_medium.jpg2017-01-12 05:08 145K 
[IMG]108681415-saucisse-secheft160_medium.jpg2017-01-12 05:00 193K 
[IMG]108681420-cartoon-tooth-with-tooth-fairyft160_medium.jpg2017-01-12 05:04 144K 
[IMG]108681427-cartoon-tooth-with-tooth-fairyft160_medium.jpg2017-01-12 05:01 147K 
[IMG]108681432-cartoon-tooth-with-tooth-fairyft160_medium.jpg2017-01-12 05:03 149K 
[IMG]108681434-milwaukee-wisconsin-at-sunset-slow-dolly-wide-angle-shotft160_medium.jpg2017-01-12 05:01 124K 
[IMG]108681447ft160_medium.jpg2017-01-12 05:03 112K 
[IMG]108681457ft160_medium.jpg2017-01-12 05:01 133K 
[IMG]108681458-colorful-rays-of-light-abstract-burst-backgroundft160_medium.jpg2017-01-12 05:00 142K 
[IMG]108681467ft160_medium.jpg2017-01-12 05:09 151K 
[IMG]108681481-blurred-bokeh-abstract-nature-backgroundft160_medium.jpg2017-01-12 05:03 139K 
[IMG]108681490-petroleum-design-economy-and-oil-industry-concept-vector-illustrationft160_medium.jpg2017-01-12 05:05 155K 
[IMG]108681510-petroleum-design-economy-and-oil-industry-concept-vector-illustrationft160_medium.jpg2017-01-12 05:04 146K 
[IMG]108681515ft160_medium.jpg2017-01-12 05:05 134K 
[IMG]108681519-happy-family-design-ft160_medium.jpg2017-01-12 05:01 229K 
[IMG]108681523ft160_medium.jpg2017-01-12 05:01 138K 
[IMG]108681525-saucisse-secheft160_medium.jpg2017-01-12 05:02 169K 
[IMG]108681533-milwaukee-wisconsin-at-sunset-slow-dolly-wide-angle-shotft160_medium.jpg2017-01-12 05:09 138K 
[IMG]108681538-running-girlft160_medium.jpg2017-01-12 05:08 121K 
[IMG]108681540-cartoon-implant-tooth-holding-billboardft160_medium.jpg2017-01-12 05:03 144K 
[IMG]108681541ft160_medium.jpg2017-01-12 05:04 135K 
[IMG]108681546-petroleum-design-economy-and-oil-industry-concept-vector-illustrationft160_medium.jpg2017-01-12 05:02 140K 
[IMG]108681547-tooth-with-brace-holding-billboardsft160_medium.jpg2017-01-12 05:09 137K 
[IMG]108681556-teddy-bear-sitting-in-the-basketft160_medium.jpg2017-01-12 05:07 156K 
[IMG]108681560-flat-illustration-of-free-delivery-design-editable-vectorft160_medium.jpg2017-01-12 05:06 129K 
[IMG]108681563-petroleum-design-economy-and-oil-industry-concept-vector-illustrationft160_medium.jpg2017-01-12 05:04 140K 
[IMG]108681564ft160_medium.jpg2017-01-12 05:02 147K 
[IMG]108681573ft160_medium.jpg2017-01-12 05:07 135K 
[IMG]108681574-cartoon-tooth-with-tooth-fairyft160_medium.jpg2017-01-12 05:10 141K 
[IMG]108681580-cartoon-tooth-with-tooth-fairyft160_medium.jpg2017-01-12 05:03 131K 
[IMG]108681581-woven-hat-closeup-isolated-on-a-white-ft160_medium.jpg2017-01-12 05:08 187K 
[IMG]108681589-petroleum-design-economy-and-oil-industry-concept-vector-illustrationft160_medium.jpg2017-01-12 04:59 141K 
[IMG]108681604-female-backgroundft160_medium.jpg2017-01-12 05:03 194K 
[IMG]108681607-milwaukee-wisconsin-at-sunset-slow-dolly-wide-angle-shotft160_medium.jpg2017-01-12 05:08 138K 
[IMG]108681612-petroleum-design-economy-and-oil-industry-concept-vector-illustrationft160_medium.jpg2017-01-12 05:05 134K 
[IMG]108681622-happy-family-design-ft160_medium.jpg2017-01-12 05:09 172K 
[IMG]108681623ft160_medium.jpg2017-01-12 05:06 208K 
[IMG]108681643-young-green-grass-in-springft160_medium.jpg2017-01-12 05:09 237K 
[IMG]108681646-summer-2016-drawn-on-sand-and-shells-at-the-beachft160_medium.jpg2017-01-12 05:01 170K 
[IMG]108681654-insalate-nell-ortoft160_medium.jpg2017-01-12 05:08 248K 
[IMG]108681668ft160_medium.jpg2017-01-12 05:07 209K 
[IMG]108681678-petroleum-design-economy-and-oil-industry-concept-vector-illustrationft160_medium.jpg2017-01-12 05:03 151K 
[IMG]108681679-beautiful-teen-girl-with-cute-puppyft160_medium.jpg2017-01-12 05:05 168K 
[IMG]108681687-sale-with-megaphone-and-colorful-confetti-ft160_medium.jpg2017-01-12 05:08 168K 
[IMG]108681690ft160_medium.jpg2017-01-12 05:04 148K 
[IMG]108681693-milwaukee-wisconsin-at-sunset-slow-dolly-wide-angle-shotft160_medium.jpg2017-01-12 05:03 111K 
[IMG]108681698ft160_medium.jpg2017-01-12 05:05 136K 
[IMG]108681718-petroleum-design-economy-and-oil-industry-concept-vector-illustrationft160_medium.jpg2017-01-12 05:02 133K 
[IMG]108681725-presenting-connection-and-interaction-conceptft160_medium.jpg2017-01-12 05:08 164K 
[IMG]108681726-saucisse-secheft160_medium.jpg2017-01-12 05:03 180K 
[IMG]108681729-flat-illustration-of-free-delivery-design-editable-vectorft160_medium.jpg2017-01-12 05:08 176K 
[IMG]108681740-flat-illustration-of-free-delivery-design-editable-vectorft160_medium.jpg2017-01-12 05:00 170K 
[IMG]108681745ft160_medium.jpg2017-01-12 05:03 209K 
[IMG]108681748-yachting-parts-of-old-sailboat-in-port-of-sailingft160_medium.jpg2017-01-12 05:06 184K 
[IMG]108681753ft160_medium.jpg2017-01-12 05:09 135K 
[IMG]108681764-happy-family-design-ft160_medium.jpg2017-01-12 05:08 176K 
[IMG]108681768-petroleum-design-economy-and-oil-industry-concept-vector-illustrationft160_medium.jpg2017-01-12 05:08 149K 
[IMG]108681773-runner-woman-with-heart-rate-monitor-running-on-beachft160_medium.jpg2017-01-12 05:03 162K 
[IMG]108681781-soil-water-deficitft160_medium.jpg2017-01-12 05:06 257K 
[IMG]108681787-businessman-draws-stairs-and-walking-up-business-concept-vector-illustration-reaching-goal-growth-to-successft160_medium.jpg2017-01-12 05:02 147K 
[IMG]108681812-petroleum-design-economy-and-oil-industry-concept-vector-illustrationft160_medium.jpg2017-01-12 05:00 136K 
[IMG]108681814-teddy-bear-sitting-in-the-basketft160_medium.jpg2017-01-12 05:03 160K 
[IMG]108681824-couple-of-runners-lace-their-shoes-and-prepare-to-joggingft160_medium.jpg2017-01-12 05:07 171K 
[IMG]108681826-waldboden-von-obenft160_medium.jpg2017-01-12 05:08 225K 
[IMG]108681827ft160_medium.jpg2017-01-12 05:07 167K 
[IMG]108681840-petroleum-design-economy-and-oil-industry-concept-vector-illustrationft160_medium.jpg2017-01-12 05:01 133K 
[IMG]108681858-petroleum-design-economy-and-oil-industry-concept-vector-illustrationft160_medium.jpg2017-01-12 05:00 135K 
[IMG]108681865-preparing-average-sales-reportft160_medium.jpg2017-01-12 05:04 187K 
[IMG]108681875-woman-sketching-infographsft160_medium.jpg2017-01-12 05:03 188K 
[IMG]108681880-man-draw-on-chalkboardft160_medium.jpg2017-01-12 05:09 126K 
[IMG]108681894-petroleum-design-economy-and-oil-industry-concept-vector-illustrationft160_medium.jpg2017-01-12 05:01 141K 
[IMG]108681896ft160_medium.jpg2017-01-12 05:00 202K 
[IMG]108681901-flat-illustration-of-free-delivery-design-editable-vectorft160_medium.jpg2017-01-12 05:09 123K 
[IMG]108681906-engineer-builder-at-construction-siteft160_medium.jpg2017-01-12 05:09 173K 
[IMG]108681907-saucisse-secheft160_medium.jpg2017-01-12 05:04 166K 
[IMG]108681926-flat-illustration-of-free-delivery-design-editable-vectorft160_medium.jpg2017-01-12 05:07 150K 
[IMG]108681930-business-woman-pulling-suitcase-bag-walking-in-cityft160_medium.jpg2017-01-12 05:09 164K 
[IMG]108681947-flat-illustration-of-free-delivery-design-editable-vectorft160_medium.jpg2017-01-12 05:08 141K 
[IMG]108681971ft160_medium.jpg2017-01-12 05:00 126K 
[IMG]108681982ft160_medium.jpg2017-01-12 05:01 116K 
[IMG]108681988-young-boy-in-classic-dress-sitting-with-heap-of-booksft160_medium.jpg2017-01-12 05:06 152K 
[IMG]108682002-young-boy-in-classic-dress-sitting-with-heap-of-booksft160_medium.jpg2017-01-12 05:01 148K 
[IMG]108682021-giraffe-and-sunsetft160_medium.jpg2017-01-12 05:06 157K 
[IMG]108682025ft160_medium.jpg2017-01-12 05:03 175K 
[IMG]108682046-world-no-tobacco-dayft160_medium.jpg2017-01-12 05:08 120K 
[IMG]108682049-chickft160_medium.jpg2017-01-12 05:00 139K 
[IMG]108682053-chickft160_medium.jpg2017-01-12 05:03 134K 
[IMG]108682062-agricultureft160_medium.jpg2017-01-12 05:07 160K 
[IMG]108682067-peperft160_medium.jpg2017-01-12 05:09 127K 
[IMG]108682072-red-balloonft160_medium.jpg2017-01-12 05:04 154K 
[IMG]108682075-young-man-hugging-his-beautiful-girlfriend-ft160_medium.jpg2017-01-12 05:09 160K 
[IMG]108682076-portrait-of-two-young-people-sitting-at-the-stairs-in-officeft160_medium.jpg2017-01-12 05:09 168K 
[IMG]108682087-potatoft160_medium.jpg2017-01-12 05:04 137K 
[IMG]108682094-boy-riding-farm-truck-in-vineyardft160_medium.jpg2017-01-12 05:04 166K 
[IMG]108682118ft160_medium.jpg2017-01-12 04:59 134K 
[IMG]108682132ft160_medium.jpg2017-01-12 05:02 147K 
[IMG]108682146ft160_medium.jpg2017-01-12 05:06 149K 
[IMG]108682151-portrait-of-business-woman-smiling-outdoorft160_medium.jpg2017-01-12 05:03 174K 
[IMG]108682164-engineer-builder-at-construction-siteft160_medium.jpg2017-01-12 05:02 184K 
[IMG]108682169-attractive-office-worker-sitting-at-deskft160_medium.jpg2017-01-12 05:07 133K 
[IMG]108682174-young-couple-on-beach-training-togetherft160_medium.jpg2017-01-12 05:07 174K 
[IMG]108682185ft160_medium.jpg2017-01-12 05:05 152K 
[IMG]108682188-aerial-view-of-bologna-historical-centerft160_medium.jpg2017-01-12 05:05 209K 
[IMG]108682215ft160_medium.jpg2017-01-12 05:00 147K 
[IMG]108682222ft160_medium.jpg2017-01-12 05:04 155K 
[IMG]108682239-teddy-bear-and-balloon-basketft160_medium.jpg2017-01-12 05:04 177K 
[IMG]108682241-happy-couple-wearing-hatft160_medium.jpg2017-01-12 05:08 176K 
[IMG]108682243-engineer-builder-at-construction-siteft160_medium.jpg2017-01-12 05:04 175K 
[IMG]108682244-engineer-builder-at-construction-siteft160_medium.jpg2017-01-12 05:09 170K 
[IMG]108682258-engineer-builder-at-construction-siteft160_medium.jpg2017-01-12 05:07 177K 
[IMG]108682265-engineer-builder-at-construction-siteft160_medium.jpg2017-01-12 05:07 177K 
[IMG]108682266-business-woman-pulling-suitcase-bag-walking-in-cityft160_medium.jpg2017-01-12 05:03 164K 
[IMG]108682279-marine-cartoons-vectorft160_medium.jpg2017-01-12 05:01 164K 
[IMG]108682280-businessman-in-military-helmet-fightingft160_medium.jpg2017-01-12 05:02 139K 
[IMG]108682292-businessman-in-military-helmet-fightingft160_medium.jpg2017-01-12 05:02 150K 
[IMG]108682302-a-collection-of-28-shiny-vector-shield-icons-with-fading-reflections-ft160_medium.jpg2017-01-12 05:05 181K 
[IMG]108682306-two-female-colleagues-in-officeft160_medium.jpg2017-01-12 05:07 129K 
[IMG]108682308-engineer-builder-at-construction-siteft160_medium.jpg2017-01-12 05:07 168K 
[IMG]108682310-travel-design-vacations-and-tourism-concept-vector-illustrationft160_medium.jpg2017-01-12 05:01 132K 
[IMG]108682317-engineer-builder-at-construction-siteft160_medium.jpg2017-01-12 05:00 178K 
[IMG]108682333-portrait-of-business-woman-smiling-outdoorft160_medium.jpg2017-01-12 05:04 154K 
[IMG]108682341-engineer-builder-at-construction-siteft160_medium.jpg2017-01-12 05:05 169K 
[IMG]108682348-tiger-headft160_medium.jpg2017-01-12 05:07 254K 
[IMG]108682354-pretty-teen-girl-with-a-gunft160_medium.jpg2017-01-12 05:00 145K 
[IMG]108682356-happy-family-design-ft160_medium.jpg2017-01-12 05:09 169K 
[IMG]108682371-two-stylish-man-talking-dressed-suits-and-ties-informal-atmosphere-at-bar-men-s-friendship-ft160_medium.jpg2017-01-12 05:00 151K 
[IMG]108682377-cook-with-a-trayft160_medium.jpg2017-01-12 05:01 131K 
[IMG]108682378-young-couple-on-beach-training-togetherft160_medium.jpg2017-01-12 05:05 185K 
[IMG]108682387ft160_medium.jpg2017-01-12 05:05 140K 
[IMG]108682400-happy-family-design-ft160_medium.jpg2017-01-12 05:00 158K 
[IMG]108682405-young-couple-on-beach-training-togetherft160_medium.jpg2017-01-12 05:02 149K 
[IMG]108682417-engineer-builder-at-construction-siteft160_medium.jpg2017-01-12 05:05 179K 
[IMG]108682421-travel-design-vacations-and-tourism-concept-vector-illustrationft160_medium.jpg2017-01-12 05:00 146K 
[IMG]108682425-fredvang-bridges-lofoten-islands-norwayft160_medium.jpg2017-01-12 05:07 132K 
[IMG]108682426-travel-design-vacations-and-tourism-concept-vector-illustrationft160_medium.jpg2017-01-12 04:59 150K 
[IMG]108682431-couple-in-sport-wear-on-beachft160_medium.jpg2017-01-12 05:06 150K 
[IMG]108682432-travel-design-vacations-and-tourism-concept-vector-illustrationft160_medium.jpg2017-01-12 05:07 144K 
[IMG]108682445-runners-young-couple-exercising-and-stertching-on-beachft160_medium.jpg2017-01-12 05:08 151K 
[IMG]108682448-illustration-of-t-letter-for-turtleft160_medium.jpg2017-01-12 05:02 152K 
[IMG]108682449ft160_medium.jpg2017-01-12 05:04 165K 
[IMG]108682454-antenaft160_medium.jpg2017-01-12 05:07 137K 
[IMG]108682471-warningft160_medium.jpg2017-01-12 05:07 195K 
[IMG]108682476-memorial-day-designft160_medium.jpg2017-01-12 05:09 183K 
[IMG]108682482-germoglio-di-insalata-in-un-ortoft160_medium.jpg2017-01-12 05:00 173K 
[IMG]108682485-people-silhouettes-in-shopping-mall-icons-isolated-on-white-background-vector-illustration-flat-style-design-ft160_medium.jpg2017-01-12 05:05 176K 
[IMG]108682489-travel-design-vacations-and-tourism-concept-vector-illustrationft160_medium.jpg2017-01-12 05:05 143K 
[IMG]108682515ft160_medium.jpg2017-01-12 05:05 125K 
[IMG]108682521-memorial-day-designft160_medium.jpg2017-01-12 05:05 188K 
[IMG]108682526-master-key-on-the-doorft160_medium.jpg2017-01-12 05:08 173K 
[IMG]108682542-young-woman-relaxing-on-the-beachft160_medium.jpg2017-01-12 05:03 149K 
[IMG]108682548-businessman-catching-taxi-in-cityft160_medium.jpg2017-01-12 05:10 162K 
[IMG]108682552-young-people-standing-in-a-gallery-and-contemplating-artworkft160_medium.jpg2017-01-12 05:06 165K 
[IMG]108682555-memorial-day-designft160_medium.jpg2017-01-12 04:59 175K 
[IMG]108682562ft160_medium.jpg2017-01-12 05:04 115K 
[IMG]108682567-scenic-drive-in-zion-national-parkft160_medium.jpg2017-01-12 05:05 227K 
[IMG]108682576-soil-water-deficitft160_medium.jpg2017-01-12 05:04 235K 
[IMG]108682577-colorful-landscape-from-zion-national-park-utahft160_medium.jpg2017-01-12 05:04 187K 
[IMG]108682578-muscarift160_medium.jpg2017-01-12 05:00 208K 
[IMG]108682583-portrait-of-confident-businessman-outdoorsft160_medium.jpg2017-01-12 05:02 147K 
[IMG]108682585-portrait-of-man-carrying-girlfriend-on-his-backft160_medium.jpg2017-01-12 05:06 144K 
[IMG]108682593-vector-set-of-space-icons-in-flat-style-isolated-on-white-background-astronauts-suit-moon-station-rocket-roverft160_medium.jpg2017-01-12 05:09 157K 
[IMG]108682599-memorial-day-designft160_medium.jpg2017-01-12 05:07 173K 
[IMG]108682612-golden-gate-bridge-in-san-francisco-at-sunsetft160_medium.jpg2017-01-12 05:07 177K 
[IMG]108682621-california-pigeon-point-lighthouse-in-cabrillo-hwy-coastal-highway-state-route-1ft160_medium.jpg2017-01-12 05:02 190K 
[IMG]108682623-successful-businessman-riding-bicycleft160_medium.jpg2017-01-12 05:03 156K 
[IMG]108682624-golden-gate-at-sunrise-surrounded-by-fogft160_medium.jpg2017-01-12 05:05 132K 
[IMG]108682626-piantine-di-insalata-nell-ortoft160_medium.jpg2017-01-12 05:04 180K 
[IMG]108682631-happy-family-design-ft160_medium.jpg2017-01-12 05:00 157K 
[IMG]108682640-kostenloser-versand-mann-mit-megafonft160_medium.jpg2017-01-12 05:05 128K 
[IMG]108682652-portrait-of-woman-talking-on-phone-with-coffeeft160_medium.jpg2017-01-12 05:08 151K 
[IMG]108682662-runner-laces-his-shoes-and-prepares-to-joggingft160_medium.jpg2017-01-12 05:01 198K 
[IMG]108682664ft160_medium.jpg2017-01-12 05:06 178K 
[IMG]108682667-girl-smiling-on-booksft160_medium.jpg2017-01-12 04:59 183K 
[IMG]108682672-successful-businessman-riding-bicycleft160_medium.jpg2017-01-12 05:06 168K 
[IMG]108682683-portrait-of-confident-businessman-outdoorsft160_medium.jpg2017-01-12 05:02 155K 
[IMG]108682684-happy-family-design-ft160_medium.jpg2017-01-12 05:06 164K 
[IMG]108682688-successful-businessman-riding-bicycleft160_medium.jpg2017-01-12 05:00 185K 
[IMG]108682707-the-white-big-buddha-statue-on-blue-sky-background-in-tak-province-thailand-ft160_medium.jpg2017-01-12 05:08 157K 
[IMG]108682710-moving-train-in-winter-nightft160_medium.jpg2017-01-12 05:08 113K 
[IMG]108682759-happy-family-design-ft160_medium.jpg2017-01-12 05:03 178K 
[IMG]108682770-the-white-big-buddha-statue-on-blue-sky-background-in-tak-province-thailand-ft160_medium.jpg2017-01-12 05:08 128K 
[IMG]108682774-abstract-bright-corporate-wavy-flyer-designft160_medium.jpg2017-01-12 05:08 135K 
[IMG]108682786-piantine-di-insalata-nell-ortoft160_medium.jpg2017-01-12 05:03 200K 
[IMG]108682813-security-system-design-warning-and-technology-conceptft160_medium.jpg2017-01-12 05:00 134K 
[IMG]108682818-young-woman-commuting-on-bicycleft160_medium.jpg2017-01-12 05:06 192K 
[IMG]108682834-money-design-bank-and-investment-conceptft160_medium.jpg2017-01-12 05:08 138K 
[IMG]108682843-young-caucasian-woman-standing-in-art-gallery-front-of-paintingsft160_medium.jpg2017-01-12 05:04 159K 
[IMG]108682849-portrait-of-confident-businessman-outdoorsft160_medium.jpg2017-01-12 05:09 139K 
[IMG]108682860-happy-family-design-ft160_medium.jpg2017-01-12 04:59 147K 
[IMG]108682873-fredvang-lofoten-islands-norwayft160_medium.jpg2017-01-12 05:03 167K 
[IMG]108682875-peasft160_medium.jpg2017-01-12 05:04 160K 
[IMG]108682876ft160_medium.jpg2017-01-12 04:59 165K 
[IMG]108682889-pineft160_medium.jpg2017-01-12 05:07 182K 
[IMG]108682895-picture-of-fisherman-ft160_medium.jpg2017-01-12 05:06 174K 
[IMG]108682898-portrait-of-couple-with-thumbs-upft160_medium.jpg2017-01-12 05:08 160K 
[IMG]108682899-veniceft160_medium.jpg2017-01-12 05:04 150K 
[IMG]108682900ft160_medium.jpg2017-01-12 05:08 137K 
[IMG]108682907-roma-foro-romanoft160_medium.jpg2017-01-12 05:09 163K 
[IMG]108682912-emergencyft160_medium.jpg2017-01-12 05:08 161K 
[IMG]108682914-etangft160_medium.jpg2017-01-12 05:05 211K 
[IMG]108682917ft160_medium.jpg2017-01-12 05:07 149K 
[IMG]108682919-golden-bubbles-on-the-top-and-foam-ascending-on-black-background-close-upft160_medium.jpg2017-01-12 05:00 158K 
[IMG]108682925-portrait-of-confident-businessman-with-mobile-phone-outdoorsft160_medium.jpg2017-01-12 05:05 154K 
[IMG]108682928-happy-couple-using-tablet-computerft160_medium.jpg2017-01-12 05:04 155K 
[IMG]108682935-pasta-vegetables-herbs-and-spices-for-italian-food-on-the-rustic-wooden-table-selective-focus-copy-spaceft160_medium.jpg2017-01-12 05:06 210K 
[IMG]108682948-man-holding-grapes-in-the-vineyardft160_medium.jpg2017-01-12 05:01 202K 
[IMG]108682949-eine-tasse-kraeutertee-mit-matcha-teebeutelft160_medium.jpg2017-01-12 05:06 130K 
[IMG]108682960-couple-dancing-on-streetft160_medium.jpg2017-01-12 04:59 170K 
[IMG]108682961-world-no-tobacco-dayft160_medium.jpg2017-01-12 05:01 152K 
[IMG]108682968-happy-family-design-ft160_medium.jpg2017-01-12 05:04 200K 
[IMG]108682975-couple-reading-mapft160_medium.jpg2017-01-12 05:04 151K 
[IMG]108682992-ohio-state-mapft160_medium.jpg2017-01-12 05:02 134K 
[IMG]108682993-happy-couple-reading-mapft160_medium.jpg2017-01-12 05:01 165K 
[IMG]108683001-woman-in-black-mourningft160_medium.jpg2017-01-12 05:03 162K 
[IMG]108683003-mountain-in-snowft160_medium.jpg2017-01-12 05:07 160K 
[IMG]108683007-cassava-or-manioc-plants-field-in-thailandft160_medium.jpg2017-01-12 05:09 167K 
[IMG]108683016-woman-pointing-away-while-man-holding-mapft160_medium.jpg2017-01-12 05:08 167K 
[IMG]108683025-woman-in-black-mourningft160_medium.jpg2017-01-12 05:03 164K 
[IMG]108683035-happy-kids-design-ft160_medium.jpg2017-01-12 05:06 179K 
[IMG]108683037-woman-holding-phone-while-man-reading-mapft160_medium.jpg2017-01-12 05:04 160K 
[IMG]108683039-cassava-or-manioc-plants-field-in-thailandft160_medium.jpg2017-01-12 05:07 207K 
[IMG]108683041-world-no-tobacco-dayft160_medium.jpg2017-01-12 05:06 145K 
[IMG]108683047-fredvang-lofoten-islands-norwayft160_medium.jpg2017-01-12 05:02 146K 
[IMG]108683059-roma-foro-romanoft160_medium.jpg2017-01-12 05:03 164K 
[IMG]108683060-couple-reading-map-while-standing-on-streetft160_medium.jpg2017-01-12 05:06 158K 
[IMG]108683065-view-of-high-mountain-in-the-national-parkft160_medium.jpg2017-01-12 05:05 181K 
[IMG]108683074-the-layout-of-the-box-for-gift-box-for-chocolates-cakes-gift-surprise-box-with-retro-cars-cut-and-fold-the-box-box-without-gluing-on-the-occasion-ft160_medium.jpg2017-01-12 05:06 288K 
[IMG]108683080-fredvang-lofoten-islands-norwayft160_medium.jpg2017-01-12 05:03 161K 
[IMG]108683081-mountain-in-snowft160_medium.jpg2017-01-12 05:02 161K 
[IMG]108683086-couple-holding-map-while-standing-on-streetft160_medium.jpg2017-01-12 05:07 162K 
[IMG]108683091-aerial-view-of-bologna-historical-centerft160_medium.jpg2017-01-12 05:06 222K 
[IMG]108683106-happy-couple-reading-mapft160_medium.jpg2017-01-12 05:07 166K 
[IMG]108683126-parrotft160_medium.jpg2017-01-12 05:05 127K 
[IMG]108683144-happy-couple-reading-map-while-standing-on-streetft160_medium.jpg2017-01-12 05:04 165K 
[IMG]108683146-wooden-bridge-walkway-to-mangrove-forestft160_medium.jpg2017-01-12 05:03 222K 
[IMG]108683162-mountain-in-snowft160_medium.jpg2017-01-12 05:08 124K 
[IMG]108683169-portrait-of-happy-couple-holding-mapft160_medium.jpg2017-01-12 05:04 166K 
[IMG]108683175-foot-prints-on-a-sandy-beachft160_medium.jpg2017-01-12 05:01 137K 
[IMG]108683194-man-looking-at-cheerful-woman-while-pointing-awayft160_medium.jpg2017-01-12 05:01 163K 
[IMG]108683195-parrotft160_medium.jpg2017-01-12 05:09 126K 
[IMG]108683197-worker-cuts-wood-bars-ft160_medium.jpg2017-01-12 05:06 176K 
[IMG]108683208-asyl-asylbewerber-asylrecht-asylantrag-asylverfahren-aft160_medium.jpg2017-01-12 05:02 110K 
[IMG]108683212-parrotft160_medium.jpg2017-01-12 05:04 128K 
[IMG]108683213-happy-family-design-ft160_medium.jpg2017-01-12 05:05 148K 
[IMG]108683214-happy-couple-wearing-hatft160_medium.jpg2017-01-12 05:07 172K 
[IMG]108683221-parrotft160_medium.jpg2017-01-12 05:06 137K 
[IMG]108683224-light-bulb-was-throw-away-on-the-beach-outdoors-ft160_medium.jpg2017-01-12 04:59 194K 
[IMG]108683227-hamnoy-lofoten-island-norwayft160_medium.jpg2017-01-12 05:08 157K 
[IMG]108683229-arktische-kaelte-auf-dem-weg-zu-unsft160_medium.jpg2017-01-12 05:01 152K 
[IMG]108683230-happy-family-design-ft160_medium.jpg2017-01-12 05:06 156K 
[IMG]108683251-hamnoy-lofoten-island-norwayft160_medium.jpg2017-01-12 05:03 157K 
[IMG]108683254-worker-cuts-wood-bars-ft160_medium.jpg2017-01-12 05:08 147K 
[IMG]108683256-woman-looking-away-while-man-photographingft160_medium.jpg2017-01-12 05:07 176K 
[IMG]108683275-hamnoy-lofoten-island-norwayft160_medium.jpg2017-01-12 05:06 154K 
[IMG]108683290-close-up-of-two-fried-duck-breast-fillets-selective-focusft160_medium.jpg2017-01-12 05:03 184K 
[IMG]108683293-roasted-duck-breast-fillets-on-a-rustic-wooden-serving-boardft160_medium.jpg2017-01-12 05:02 178K 
[IMG]108683300-wooden-serving-board-with-roasted-duck-breasts-above-viewft160_medium.jpg2017-01-12 05:08 189K 
[IMG]108683304-hamnoy-lofoten-island-norwayft160_medium.jpg2017-01-12 05:03 139K 
[IMG]108683305-close-up-of-whole-and-sliced-fried-duck-breasts-studio-shotft160_medium.jpg2017-01-12 05:08 193K 
[IMG]108683315-mountain-in-snowft160_medium.jpg2017-01-12 05:03 216K 
[IMG]108683316-undressing-woman-isolated-on-white-backgroundft160_medium.jpg2017-01-12 05:08 154K 
[IMG]108683322-parrotft160_medium.jpg2017-01-12 04:59 134K 
[IMG]108683323-skagsanden-beach-lofoten-islands-norwayft160_medium.jpg2017-01-12 05:04 149K 
[IMG]108683325-smiling-couple-using-phoneft160_medium.jpg2017-01-12 05:05 172K 
[IMG]108683327-worker-cuts-wood-bars-ft160_medium.jpg2017-01-12 05:09 181K 
[IMG]108683330-close-up-of-two-whole-baked-quails-and-potato-selective-focusft160_medium.jpg2017-01-12 05:03 179K 
[IMG]108683338-baked-quails-and-potato-on-a-rustic-wooden-serving-boardft160_medium.jpg2017-01-12 05:06 184K 
[IMG]108683339-parrotft160_medium.jpg2017-01-12 05:01 127K 
[IMG]108683347-cast-iron-frying-pan-with-baked-quails-and-potato-studio-shotft160_medium.jpg2017-01-12 05:02 172K 
[IMG]108683352-hamnoy-lofoten-island-norwayft160_medium.jpg2017-01-12 05:05 147K 
[IMG]108683358-parrotft160_medium.jpg2017-01-12 05:09 127K 
[IMG]108683359-whole-baked-quails-and-potato-in-a-frying-pan-closeup-top-viewft160_medium.jpg2017-01-12 05:06 182K 
[IMG]108683360-skagsanden-beach-lofoten-islands-norwayft160_medium.jpg2017-01-12 05:07 152K 
[IMG]108683361-girl-sleeping-on-top-of-booksft160_medium.jpg2017-01-12 05:07 176K 
[IMG]108683367-above-view-of-grilled-t-bone-beefsteak-with-potato-close-upft160_medium.jpg2017-01-12 05:04 181K 
[IMG]108683370-grilled-t-bone-steak-with-tomatoes-on-a-rustic-serving-boardft160_medium.jpg2017-01-12 05:07 192K 
[IMG]108683373-parrotft160_medium.jpg2017-01-12 05:07 128K 
[IMG]108683374-skagsanden-beach-lofoten-islands-norwayft160_medium.jpg2017-01-12 05:09 143K 
[IMG]108683375-woman-photographing-manft160_medium.jpg2017-01-12 05:01 170K 
[IMG]108683444-mountain-in-snowft160_medium.jpg2017-01-12 05:05 170K 
[IMG]108683460-scribbled-sport-icon-setft160_medium.jpg2017-01-12 05:04 199K 
[IMG]108683462-girl-asleep-on-top-of-booksft160_medium.jpg2017-01-12 05:06 174K 
[IMG]108683465-woman-embracing-man-from-behindft160_medium.jpg2017-01-12 05:06 175K 
[IMG]108683466-sun-flower-the-sign-of-hope-for-your-success-and-nature-background-ft160_medium.jpg2017-01-12 05:00 212K 
[IMG]108683468-irisft160_medium.jpg2017-01-12 05:04 155K 
[IMG]108683478-skagsanden-beach-lofoten-islands-norwayft160_medium.jpg2017-01-12 05:00 130K 
[IMG]108683500-skagsanden-beach-lofoten-islands-norwayft160_medium.jpg2017-01-12 05:01 129K 
[IMG]108683503-debate-typography-vector-illustrationft160_medium.jpg2017-01-12 05:01 122K 
[IMG]108683533-mountain-in-snowft160_medium.jpg2017-01-12 05:03 179K 
[IMG]108683553-es-wird-kaltft160_medium.jpg2017-01-12 05:05 129K 
[IMG]108683567ft160_medium.jpg2017-01-12 05:09 193K 
[IMG]108683568-skagsanden-beach-lofoten-islands-norwayft160_medium.jpg2017-01-12 05:07 173K 
[IMG]108683583-roma-foro-romanoft160_medium.jpg2017-01-12 05:02 157K 
[IMG]108683600-beaytiful-latina-diver-inside-a-school-of-fishft160_medium.jpg2017-01-12 05:03 159K 
[IMG]108683602-metal-texture-with-scratches-and-cracksft160_medium.jpg2017-01-12 05:03 139K 
[IMG]108683603-beaytiful-latina-diver-inside-a-school-of-fishft160_medium.jpg2017-01-12 04:59 206K 
[IMG]108683605-man-s-watch-on-black-background-luxury-goods-ft160_medium.jpg2017-01-12 05:07 134K 
[IMG]108683607-beaytiful-latina-diver-inside-a-school-of-fishft160_medium.jpg2017-01-12 05:00 158K 
[IMG]108683613-beauty-blonde-diver-girl-looking-at-youft160_medium.jpg2017-01-12 05:05 173K 
[IMG]108683615ft160_medium.jpg2017-01-12 05:03 143K 
[IMG]108683616-metal-texture-with-scratches-and-cracksft160_medium.jpg2017-01-12 05:07 138K 
[IMG]108683617-man-s-watch-on-black-background-luxury-goods-ft160_medium.jpg2017-01-12 05:03 143K 
[IMG]108683623-white-long-rice-in-burlap-sack-with-wooden-spoonft160_medium.jpg2017-01-12 05:04 164K 
[IMG]108683631-man-s-watch-on-black-background-luxury-goods-ft160_medium.jpg2017-01-12 05:07 135K 
[IMG]108683637-couple-serving-breakfast-to-friends-at-tableft160_medium.jpg2017-01-12 05:05 187K 
[IMG]108683639-man-s-watch-on-black-background-luxury-goods-ft160_medium.jpg2017-01-12 05:06 132K 
[IMG]108683643-man-s-watch-on-black-background-luxury-goods-ft160_medium.jpg2017-01-12 05:00 125K 
[IMG]108683647ft160_medium.jpg2017-01-12 05:05 149K 
[IMG]108683651-man-s-watch-on-black-background-luxury-goods-ft160_medium.jpg2017-01-12 05:01 147K 
[IMG]108683660-man-s-watch-on-black-background-luxury-goods-ft160_medium.jpg2017-01-12 05:06 136K 
[IMG]108683663-foot-prints-on-a-sandy-beachft160_medium.jpg2017-01-12 05:04 133K 
[IMG]108683675-mountain-in-snowft160_medium.jpg2017-01-12 05:09 204K 
[IMG]108683678-man-s-watch-on-black-background-luxury-goods-ft160_medium.jpg2017-01-12 05:00 142K 
[IMG]108683684-hand-made-of-raw-silkft160_medium.jpg2017-01-12 05:04 212K 
[IMG]108683690-shockproof-material-air-bubble-sheetft160_medium.jpg2017-01-12 05:08 152K 
[IMG]108683695-cut-mushrooms-with-onion-ft160_medium.jpg2017-01-12 05:06 175K 
[IMG]108683708-smiling-young-friends-having-breakfast-at-tableft160_medium.jpg2017-01-12 05:07 196K 
[IMG]108683726-vector-animation-camera-concept-templateft160_medium.jpg2017-01-12 05:03 177K 
[IMG]108683733-sale-signs-in-shop-windowft160_medium.jpg2017-01-12 05:06 157K 
[IMG]108683737-brick-texture-with-scratches-and-cracksft160_medium.jpg2017-01-12 05:04 193K 
[IMG]108683744-sunflowers-fieldft160_medium.jpg2017-01-12 05:06 193K 
[IMG]108683746-shockproof-material-air-bubble-sheetft160_medium.jpg2017-01-12 05:09 165K 
[IMG]108683756-kawa-znak-ikonaft160_medium.jpg2017-01-12 05:07 150K 
[IMG]108683757-gear-shifterft160_medium.jpg2017-01-12 05:01 154K 
[IMG]108683768-brick-texture-with-scratches-and-cracksft160_medium.jpg2017-01-12 05:06 186K 
[IMG]108683769-main-university-of-moscowft160_medium.jpg2017-01-12 05:08 151K 
[IMG]108683770-one-goatling-eating-of-green-grass-at-farmft160_medium.jpg2017-01-12 05:06 177K 
[IMG]108683784-orange-poppies-in-a-summer-meadow-on-sunny-dayft160_medium.jpg2017-01-12 05:04 225K 
[IMG]108683789-skagsanden-beach-lofoten-islands-norwayft160_medium.jpg2017-01-12 05:09 165K 
[IMG]108683795-mountain-in-snowft160_medium.jpg2017-01-12 05:05 189K 
[IMG]108683804-bicycles-leaning-against-old-wooden-doorft160_medium.jpg2017-01-12 05:04 184K 
[IMG]108683815-time-lapse-of-road-junction-at-night-city-interchange-of-urban-expressway-in-nanjingft160_medium.jpg2017-01-12 05:03 172K 
[IMG]108683817-pregnant-woman-with-heart-sign-on-her-belly-and-sun-flower-garden-ft160_medium.jpg2017-01-12 05:08 145K 
[IMG]108683820-skagsanden-beach-lofoten-islands-norwayft160_medium.jpg2017-01-12 05:01 181K 
[IMG]108683824-dying-lion-wall-monument-lucerne-switzerlandft160_medium.jpg2017-01-12 05:05 176K 
[IMG]108683825-young-couple-having-breakfast-with-friends-at-homeft160_medium.jpg2017-01-12 05:01 189K 
[IMG]108683830-man-s-watch-on-black-background-luxury-goods-ft160_medium.jpg2017-01-12 05:05 128K 
[IMG]108683833-pot-de-fleursft160_medium.jpg2017-01-12 05:04 204K 
[IMG]108683835-skagsanden-beach-lofoten-islands-norwayft160_medium.jpg2017-01-12 05:07 191K 
[IMG]108683838ft160_medium.jpg2017-01-12 05:09 167K 
[IMG]108683840-roma-foro-romanoft160_medium.jpg2017-01-12 05:07 193K 
[IMG]108683842-man-s-watch-on-white-background-luxury-goods-ft160_medium.jpg2017-01-12 05:06 130K 
[IMG]108683845-woman-resting-on-pile-of-booksft160_medium.jpg2017-01-12 05:00 171K 
[IMG]108683849-skagsanden-beach-lofoten-islands-norwayft160_medium.jpg2017-01-12 05:02 191K 
[IMG]108683851-busy-traffic-on-road-at-night-in-portlandft160_medium.jpg2017-01-12 05:06 174K 
[IMG]108683853-element-for-design-template-ft160_medium.jpg2017-01-12 05:06 188K 
[IMG]108683855-skagsanden-beach-lofoten-islands-norwayft160_medium.jpg2017-01-12 05:04 132K 
[IMG]108683861-computerarbeit-tippen-im-bueroft160_medium.jpg2017-01-12 05:07 134K 
[IMG]108683866-man-s-watch-on-white-background-luxury-goods-ft160_medium.jpg2017-01-12 05:06 135K 
[IMG]108683870-skagsanden-beach-lofoten-islands-norwayft160_medium.jpg2017-01-12 05:01 179K 
[IMG]108683873-smiling-young-woman-having-breakfast-with-friends-at-homeft160_medium.jpg2017-01-12 05:03 163K 
[IMG]108683875-skagsanden-beach-lofoten-islands-norwayft160_medium.jpg2017-01-12 04:59 142K 
[IMG]108683877-fresh-pandan-leaves-cut-isolated-on-white-backgroundft160_medium.jpg2017-01-12 05:08 132K 
[IMG]108683878-ruscello-che-scende-dalla-montagnaft160_medium.jpg2017-01-12 05:09 143K 
[IMG]108683881-blue-boat-on-the-beachft160_medium.jpg2017-01-12 05:08 165K 
[IMG]108683886-man-s-watch-on-white-background-luxury-goods-ft160_medium.jpg2017-01-12 05:04 134K 
[IMG]108683890-xray-scan-internal-organs-stomach-3d-renderft160_medium.jpg2017-01-12 05:09 139K 
[IMG]108683891-xray-scan-internal-orans-lungs-3d-renderft160_medium.jpg2017-01-12 05:05 127K 
[IMG]108683901-skagsanden-beach-lofoten-islands-norwayft160_medium.jpg2017-01-12 05:00 145K 
[IMG]108683904-brown-sugar-cube-isolated-on-whiteft160_medium.jpg2017-01-12 05:06 138K 
[IMG]108683909-mountain-in-snowft160_medium.jpg2017-01-12 05:02 167K 
[IMG]108683910-man-s-watch-on-white-background-luxury-goods-ft160_medium.jpg2017-01-12 05:07 139K 
[IMG]108683914-skagsanden-beach-lofoten-islands-norwayft160_medium.jpg2017-01-12 05:06 146K 
[IMG]108683917-world-no-tobacco-dayft160_medium.jpg2017-01-12 05:00 141K 
[IMG]108683918-brown-sugar-in-a-wooden-spoon-isolated-on-whiteft160_medium.jpg2017-01-12 05:05 145K 
[IMG]108683933-roma-foro-romanoft160_medium.jpg2017-01-12 05:01 183K 
[IMG]108683938-skeleton-with-internal-organs-3d-renderingft160_medium.jpg2017-01-12 05:07 157K 
[IMG]108683939-skeleton-with-internal-organs-3d-renderingft160_medium.jpg2017-01-12 05:08 157K 
[IMG]108683952-broccoli-cabbage-side-isolated-on-white-background-as-package-design-elementft160_medium.jpg2017-01-12 04:59 202K 
[IMG]108683956ft160_medium.jpg2017-01-12 05:05 163K 
[IMG]108683963-skeleton-with-internal-organs-3d-renderingft160_medium.jpg2017-01-12 05:07 148K 
[IMG]108683965-green-iceberg-lettuce-on-white-backgroundft160_medium.jpg2017-01-12 05:07 132K 
[IMG]108683966-xray-scan-internal-organs-3d-renderingft160_medium.jpg2017-01-12 04:59 136K 
[IMG]108683968ft160_medium.jpg2017-01-12 05:07 116K 
[IMG]108683970-pot-de-fleursft160_medium.jpg2017-01-12 05:03 192K 
[IMG]108683972ft160_medium.jpg2017-01-12 05:07 152K 
[IMG]108683978-xray-scan-internal-orans-3d-renderingft160_medium.jpg2017-01-12 05:06 136K 
[IMG]108683979ft160_medium.jpg2017-01-12 05:05 129K 
[IMG]108683980-xray-scan-human-body-3d-renderingft160_medium.jpg2017-01-12 05:00 115K 
[IMG]108683984ft160_medium.jpg2017-01-12 05:03 153K 
[IMG]108683988-gefleckte-taubnessel-bluete-ft160_medium.jpg2017-01-12 04:59 194K 
[IMG]108683992-dying-lion-wall-monument-lucerne-switzerlandft160_medium.jpg2017-01-12 05:04 206K 
[IMG]108683995-wild-animal-collectionft160_medium.jpg2017-01-12 05:05 179K 
[IMG]108683999-elderly-man-on-yacht-at-seaft160_medium.jpg2017-01-12 05:07 180K 
[IMG]108684012ft160_medium.jpg2017-01-12 05:09 178K 
[IMG]108684015ft160_medium.jpg2017-01-12 05:05 163K 
[IMG]108684023-rock-formationft160_medium.jpg2017-01-12 05:09 177K 
[IMG]108684024ft160_medium.jpg2017-01-12 04:59 180K 
[IMG]108684026-young-pretty-hipster-girl-biker-girl-sitting-on-vintage-custom-motorcycle-biker-girl-sitting-outdoor-lifestyle-portrait-jeans-short-denim-fashion-styleft160_medium.jpg2017-01-12 05:05 150K 
[IMG]108684029-mt-fuji-chureito-pagoda-or-red-pagoda-with-sakura-ft160_medium.jpg2017-01-12 05:06 182K 
[IMG]108684032ft160_medium.jpg2017-01-12 05:07 159K 
[IMG]108684035-mountain-in-snowft160_medium.jpg2017-01-12 05:04 164K 
[IMG]108684036-busy-traffic-on-road-at-night-in-portlandft160_medium.jpg2017-01-12 05:08 188K 
[IMG]108684038ft160_medium.jpg2017-01-12 05:01 159K 
[IMG]108684047ft160_medium.jpg2017-01-12 05:08 166K 
[IMG]108684057-white-telescope-at-outdoorft160_medium.jpg2017-01-12 05:04 136K 
[IMG]108684058ft160_medium.jpg2017-01-12 05:08 123K 
[IMG]108684064ft160_medium.jpg2017-01-12 05:03 135K 
[IMG]108684071-dying-lion-wall-monument-lucerne-switzerlandft160_medium.jpg2017-01-12 04:59 207K 
[IMG]108684079ft160_medium.jpg2017-01-12 05:06 173K 
[IMG]108684098-woman-looking-at-the-smartphone-at-the-seasideft160_medium.jpg2017-01-12 05:02 133K 
[IMG]108684099-storvatnet-lofoten-islands-norwayft160_medium.jpg2017-01-12 05:06 137K 
[IMG]108684105-freundliche-aeltere-frau-mit-brille-auf-dem-sofaft160_medium.jpg2017-01-12 05:08 127K 
[IMG]108684116-woman-wearing-a-white-bikini-is-walking-the-beachft160_medium.jpg2017-01-12 05:04 150K 
[IMG]108684117ft160_medium.jpg2017-01-12 05:08 148K 
[IMG]108684119-laechelnde-seniorin-nutzt-das-internetft160_medium.jpg2017-01-12 05:07 151K 
[IMG]108684121-storvatnet-lofoten-islands-norwayft160_medium.jpg2017-01-12 05:01 153K 
[IMG]108684122ft160_medium.jpg2017-01-12 05:01 148K 
[IMG]108684125-aeltere-frau-empoert-ueber-internet-angeboteft160_medium.jpg2017-01-12 05:08 149K 
[IMG]108684126-gierschft160_medium.jpg2017-01-12 05:01 168K 
[IMG]108684132-enttaeuschte-seniorin-mit-einem-buchft160_medium.jpg2017-01-12 05:04 156K 
[IMG]108684134ft160_medium.jpg2017-01-12 05:01 126K 
[IMG]108684139-woman-smile-beach-seaft160_medium.jpg2017-01-12 05:01 129K 
[IMG]108684164ft160_medium.jpg2017-01-12 05:06 137K 
[IMG]108684168ft160_medium.jpg2017-01-12 05:08 133K 
[IMG]108684169ft160_medium.jpg2017-01-12 05:00 170K 
[IMG]108684175ft160_medium.jpg2017-01-12 05:04 152K 
[IMG]108684177-portrait-of-happy-friends-holding-wine-glassesft160_medium.jpg2017-01-12 05:09 186K 
[IMG]108684181ft160_medium.jpg2017-01-12 05:04 140K 
[IMG]108684184-young-pretty-hipster-girl-biker-girl-sitting-on-vintage-custom-motorcycle-biker-girl-sitting-outdoor-lifestyle-portrait-jeans-short-denim-fashion-styleft160_medium.jpg2017-01-12 05:04 147K 
[IMG]108684194-freestyle-swimmer-silhouette-sport-swimmingft160_medium.jpg2017-01-12 05:05 144K 
[IMG]108684197-young-blonde-girl-in-blonde-silk-underwear-and-denim-shorts-hipster-lying-on-a-bed-at-home-in-the-bathroom-posing-sexy-body-tan-athletic-figure-fitness-outdoor-portrait-close-up-bodyft160_medium.jpg2017-01-12 05:04 153K 
[IMG]108684203ft160_medium.jpg2017-01-12 05:08 116K 
[IMG]108684207ft160_medium.jpg2017-01-12 05:08 130K 
[IMG]108684210--wild-animalft160_medium.jpg2017-01-12 05:06 212K 

Apache/2.4.12 (Ubuntu) Server at pics.mein-artikel-design.de Port 443